| time (UTC) | temp F | wind direction | speed knots | gust knots | rain 1hr in | rain 24hr in | rain mn in | humidity % | barometer mb |
| 20260903173032 | 98 | 55 | 0.9 | 7.0 | 0.00 | 0.00 | 0.00 | 51 | 1016.4 |
| 20260903172922 | 98 | 269 | 0.9 | 7.0 | 0.00 | 0.00 | 0.00 | 52 | 1016.5 |
| 20260903172830 | 98 | 89 | 0.9 | 7.0 | 0.00 | 0.00 | 0.00 | 50 | 1016.5 |
| 20260903172737 | 98 | 94 | 2.6 | 7.0 | 0.00 | 0.00 | 0.00 | 50 | 1016.5 |
| 20260903172622 | 98 | 90 | 3.5 | 7.0 | 0.00 | 0.00 | 0.00 | 51 | 1016.5 |
| 20260903172530 | 98 | 65 | 3.5 | 7.0 | 0.00 | 0.00 | 0.00 | 54 | 1016.5 |
| 20260903172419 | 98 | 91 | 4.3 | 7.0 | 0.00 | 0.00 | 0.00 | 55 | 1016.5 |
| 20260903172325 | 98 | 100 | 2.6 | 7.0 | 0.00 | 0.00 | 0.00 | 56 | 1016.5 |
| 20260903172233 | 98 | 171 | 1.7 | 6.1 | 0.00 | 0.00 | 0.00 | 56 | 1016.5 |
| 20260903172139 | 98 | 29 | 1.7 | 4.3 | 0.00 | 0.00 | 0.00 | 52 | 1016.6 |
| 20260903172024 | 98 | 82 | 1.7 | 4.3 | 0.00 | 0.00 | 0.00 | 54 | 1016.6 |
| 20260903171951 | 97 | 348 | 2.6 | 4.3 | 0.00 | 0.00 | 0.00 | 52 | 1016.6 |
| 20260903171817 | 97 | 267 | 2.6 | 4.3 | 0.00 | 0.00 | 0.00 | 54 | 1016.6 |
| 20260903171753 | 97 | 236 | 2.6 | 4.3 | 0.00 | 0.00 | 0.00 | 54 | 1016.6 |
| 20260903171525 | 97 | 347 | 2.6 | 4.3 | 0.00 | 0.00 | 0.00 | 53 | 1016.7 |
| 20260903171433 | 97 | 340 | 2.6 | 5.2 | 0.00 | 0.00 | 0.00 | 52 | 1016.7 |
| 20260903171320 | 97 | 349 | 1.7 | 5.2 | 0.00 | 0.00 | 0.00 | 53 | 1016.8 |
| 20260903171231 | 97 | 304 | 1.7 | 5.2 | 0.00 | 0.00 | 0.00 | 54 | 1016.7 |
| 20260903171117 | 97 | 10 | 2.6 | 5.2 | 0.00 | 0.00 | 0.00 | 55 | 1016.8 |
| 20260903171043 | 97 | 9 | 2.6 | 5.2 | 0.00 | 0.00 | 0.00 | 56 | 1016.7 |
| 20260903170929 | 97 | 344 | 3.5 | 5.2 | 0.00 | 0.00 | 0.00 | 58 | 1016.8 |
| 20260903170836 | 97 | 339 | 2.6 | 5.2 | 0.00 | 0.00 | 0.00 | 56 | 1016.8 |
| 20260903170742 | 97 | 10 | 2.6 | 5.2 | 0.00 | 0.00 | 0.00 | 52 | 1016.7 |
| 20260903170629 | 97 | 153 | 3.5 | 5.2 | 0.00 | 0.00 | 0.00 | 54 | 1016.8 |
| 20260903170540 | 97 | 51 | 2.6 | 5.2 | 0.00 | 0.00 | 0.00 | 55 | 1016.7 |
| 20260903170425 | 97 | 24 | 2.6 | 5.2 | 0.00 | 0.00 | 0.00 | 54 | 1016.8 |
| 20260903170332 | 97 | 35 | 2.6 | 5.2 | 0.00 | 0.00 | 0.00 | 55 | 1016.8 |
| 20260903170303 | 97 | 27 | 1.7 | 5.2 | 0.00 | 0.00 | 0.00 | 55 | 1016.8 |
| 20260903170019 | 97 | 30 | 2.6 | 5.2 | 0.00 | 0.00 | 0.00 | 56 | 1016.9 |
| 20260903165926 | 97 | 5 | 3.5 | 5.2 | 0.00 | 0.00 | 0.00 | 57 | 1016.9 |
| 20260903165832 | 96 | 5 | 3.5 | 5.2 | 0.00 | 0.00 | 0.00 | 60 | 1016.8 |
| 20260903165720 | 96 | 37 | 2.6 | 5.2 | 0.00 | 0.00 | 0.00 | 59 | 1016.8 |
| 20260903165627 | 96 | 9 | 1.7 | 5.2 | 0.00 | 0.00 | 0.00 | 59 | 1016.9 |
| 20260903165534 | 96 | 334 | 1.7 | 4.3 | 0.00 | 0.00 | 0.00 | 57 | 1017.0 |
| 20260903165424 | 96 | 332 | 1.7 | 5.2 | 0.00 | 0.00 | 0.00 | 57 | 1017.0 |
| 20260903165330 | 96 | 294 | 2.6 | 5.2 | 0.00 | 0.00 | 0.00 | 59 | 1016.9 |
| 20260903165256 | 96 | 360 | 3.5 | 5.2 | 0.00 | 0.00 | 0.00 | 59 | 1016.9 |
| 20260903165122 | 96 | 65 | 1.7 | 5.2 | 0.00 | 0.00 | 0.00 | 58 | 1017.0 |
| 20260903165028 | 96 | 36 | 0.9 | 5.2 | 0.00 | 0.00 | 0.00 | 56 | 1016.9 |
| 20260903164935 | 96 | 75 | 1.7 | 5.2 | 0.00 | 0.00 | 0.00 | 58 | 1017.0 |
| 20260903164847 | 96 | 52 | 2.6 | 5.2 | 0.00 | 0.00 | 0.00 | 57 | 1017.0 |
| 20260903164755 | 96 | 33 | 2.6 | 5.2 | 0.00 | 0.00 | 0.00 | 56 | 1017.0 |
| 20260903164548 | 96 | 194 | 2.6 | 5.2 | 0.00 | 0.00 | 0.00 | 55 | 1017.0 |
| 20260903164435 | 96 | 205 | 1.7 | 5.2 | 0.00 | 0.00 | 0.00 | 56 | 1017.0 |
| 20260903164341 | 96 | 166 | 0.9 | 5.2 | 0.00 | 0.00 | 0.00 | 57 | 1017.0 |
| 20260903164227 | 96 | 142 | 1.7 | 5.2 | 0.00 | 0.00 | 0.00 | 57 | 1017.1 |
| 20260903164118 | 96 | 96 | 1.7 | 5.2 | 0.00 | 0.00 | 0.00 | 57 | 1017.1 |
| 20260903164025 | 96 | 86 | 2.6 | 5.2 | 0.00 | 0.00 | 0.00 | 53 | 1017.1 |
| 20260903163932 | 96 | 111 | 2.6 | 5.2 | 0.00 | 0.00 | 0.00 | 55 | 1017.0 |
| 20260903163817 | 96 | 79 | 1.7 | 5.2 | 0.00 | 0.00 | 0.00 | 55 | 1017.0 |
| 20260903163723 | 96 | 90 | 1.7 | 5.2 | 0.00 | 0.00 | 0.00 | 57 | 1017.1 |
| 20260903163635 | 96 | 45 | 2.6 | 5.2 | 0.00 | 0.00 | 0.00 | 56 | 1017.0 |
| 20260903163520 | 96 | 24 | 1.7 | 5.2 | 0.00 | 0.00 | 0.00 | 55 | 1017.2 |
| 20260903163428 | 96 | 134 | 1.7 | 5.2 | 0.00 | 0.00 | 0.00 | 55 | 1017.1 |
| 20260903163334 | 96 | 134 | 1.7 | 7.0 | 0.00 | 0.00 | 0.00 | 58 | 1017.1 |
| 20260903163305 | 96 | 133 | 1.7 | 7.0 | 0.00 | 0.00 | 0.00 | 58 | 1017.1 |
| 20260903163041 | 96 | 325 | 1.7 | 7.0 | 0.00 | 0.00 | 0.00 | 58 | 1017.1 |
| 20260903162926 | 96 | 13 | 2.6 | 7.0 | 0.00 | 0.00 | 0.00 | 59 | 1017.1 |
| 20260903162832 | 96 | 46 | 2.6 | 7.0 | 0.00 | 0.00 | 0.00 | 59 | 1017.1 |
| 20260903162757 | 96 | 32 | 2.6 | 7.0 | 0.00 | 0.00 | 0.00 | 60 | 1017.1 |
| 20260903162623 | 96 | 10 | 3.5 | 7.0 | 0.00 | 0.00 | 0.00 | 59 | 1017.1 |
| 20260903162549 | 96 | 355 | 3.5 | 7.0 | 0.00 | 0.00 | 0.00 | 59 | 1017.2 |
| 20260903162436 | 95 | 19 | 3.5 | 7.0 | 0.00 | 0.00 | 0.00 | 59 | 1017.2 |
| 20260903162348 | 95 | 5 | 1.7 | 5.2 | 0.00 | 0.00 | 0.00 | 61 | 1017.2 |
| 20260903162233 | 95 | 137 | 2.6 | 5.2 | 0.00 | 0.00 | 0.00 | 60 | 1017.2 |
| 20260903162122 | 95 | 133 | 2.6 | 5.2 | 0.00 | 0.00 | 0.00 | 61 | 1017.2 |
| 20260903162029 | 95 | 108 | 1.7 | 5.2 | 0.00 | 0.00 | 0.00 | 60 | 1017.2 |
| 20260903161935 | 95 | 55 | 0.9 | 4.3 | 0.00 | 0.00 | 0.00 | 58 | 1017.2 |
| 20260903161903 | 95 | 157 | 0.9 | 4.3 | 0.00 | 0.00 | 0.00 | 58 | 1017.2 |
| 20260903161817 | 95 | 211 | 0.9 | 4.3 | 0.00 | 0.00 | 0.00 | 58 | 1017.2 |
| 20260903161529 | 95 | 295 | 1.7 | 4.3 | 0.00 | 0.00 | 0.00 | 58 | 1017.3 |
| 20260903161436 | 95 | 288 | 2.6 | 4.3 | 0.00 | 0.00 | 0.00 | 59 | 1017.4 |
| 20260903161342 | 95 | 335 | 1.7 | 3.5 | 0.00 | 0.00 | 0.00 | 61 | 1017.3 |
| 20260903161227 | 95 | 336 | 0.9 | 4.3 | 0.00 | 0.00 | 0.00 | 59 | 1017.4 |
| 20260903161133 | 95 | 336 | 0.9 | 4.3 | 0.00 | 0.00 | 0.00 | 59 | 1017.3 |
| 20260903161024 | 95 | 94 | 1.7 | 4.3 | 0.00 | 0.00 | 0.00 | 58 | 1017.3 |
| 20260903160931 | 95 | 58 | 1.7 | 4.3 | 0.00 | 0.00 | 0.00 | 58 | 1017.3 |
| 20260903160817 | 95 | 51 | 1.7 | 5.2 | 0.00 | 0.00 | 0.00 | 59 | 1017.4 |
| 20260903160723 | 95 | 39 | 1.7 | 7.0 | 0.00 | 0.00 | 0.00 | 58 | 1017.3 |
| 20260903160630 | 95 | 21 | 1.7 | 7.0 | 0.00 | 0.00 | 0.00 | 58 | 1017.3 |
| 20260903160522 | 95 | 45 | 2.6 | 7.0 | 0.00 | 0.00 | 0.00 | 60 | 1017.4 |
| 20260903160429 | 95 | 28 | 2.6 | 7.0 | 0.00 | 0.00 | 0.00 | 59 | 1017.5 |
| 20260903160337 | 95 | 37 | 2.6 | 7.0 | 0.00 | 0.00 | 0.00 | 58 | 1017.4 |
| 20260903160307 | 95 | 5 | 2.6 | 7.0 | 0.00 | 0.00 | 0.00 | 58 | 1017.4 |
| 20260903160040 | 95 | 79 | 2.6 | 7.0 | 0.00 | 0.00 | 0.00 | 58 | 1017.4 |
| 20260903155946 | 95 | 16 | 2.6 | 7.0 | 0.00 | 0.00 | 0.00 | 58 | 1017.4 |
| 20260903155835 | 95 | 56 | 2.6 | 5.2 | 0.00 | 0.00 | 0.00 | 58 | 1017.4 |
| 20260903155721 | 95 | 51 | 3.5 | 5.2 | 0.00 | 0.00 | 0.00 | 59 | 1017.4 |
| 20260903155629 | 95 | 56 | 2.6 | 7.0 | 0.00 | 0.00 | 0.00 | 59 | 1017.4 |
| 20260903155536 | 95 | 338 | 1.7 | 7.0 | 0.00 | 0.00 | 0.00 | 59 | 1017.4 |
| 20260903155422 | 95 | 89 | 2.6 | 7.0 | 0.00 | 0.00 | 0.00 | 60 | 1017.4 |
| 20260903155350 | 95 | 73 | 2.6 | 7.0 | 0.00 | 0.00 | 0.00 | 59 | 1017.4 |
| 20260903155219 | 95 | 46 | 1.7 | 7.0 | 0.00 | 0.00 | 0.00 | 59 | 1017.5 |
| 20260903155126 | 95 | 49 | 1.7 | 7.0 | 0.00 | 0.00 | 0.00 | 58 | 1017.4 |
| 20260903155032 | 95 | 34 | 2.6 | 7.0 | 0.00 | 0.00 | 0.00 | 62 | 1017.4 |
| 20260903154917 | 95 | 42 | 2.6 | 7.0 | 0.00 | 0.00 | 0.00 | 61 | 1017.4 |
| 20260903154825 | 95 | 40 | 0.9 | 7.0 | 0.00 | 0.00 | 0.00 | 58 | 1017.5 |
| 20260903154759 | 95 | 30 | 0.9 | 5.2 | 0.00 | 0.00 | 0.00 | 58 | 1017.5 |
| 20260903154533 | 95 | 148 | 1.7 | 5.2 | 0.00 | 0.00 | 0.00 | 59 | 1017.4 |
| 20260903154420 | 95 | 121 | 1.7 | 5.2 | 0.00 | 0.00 | 0.00 | 60 | 1017.4 |
| 20260903154327 | 95 | 120 | 1.7 | 5.2 | 0.00 | 0.00 | 0.00 | 60 | 1017.4 |
| 20260903154218 | 95 | 26 | 1.7 | 5.2 | 0.00 | 0.00 | 0.00 | 59 | 1017.5 |
| 20260903154125 | 95 | 78 | 1.7 | 5.2 | 0.00 | 0.00 | 0.00 | 58 | 1017.5 |
| 20260903154033 | 95 | 33 | 2.6 | 5.2 | 0.00 | 0.00 | 0.00 | 59 | 1017.5 |
| 20260903153919 | 95 | 20 | 2.6 | 3.5 | 0.00 | 0.00 | 0.00 | 59 | 1017.4 |
| 20260903153826 | 95 | 355 | 1.7 | 4.3 | 0.00 | 0.00 | 0.00 | 59 | 1017.4 |
| 20260903153733 | 95 | 350 | 1.7 | 5.2 | 0.00 | 0.00 | 0.00 | 59 | 1017.4 |
| 20260903153625 | 95 | 309 | 1.7 | 5.2 | 0.00 | 0.00 | 0.00 | 59 | 1017.4 |
| 20260903153530 | 95 | 315 | 1.7 | 5.2 | 0.00 | 0.00 | 0.00 | 61 | 1017.4 |
| 20260903153418 | 95 | 5 | 1.7 | 5.2 | 0.00 | 0.00 | 0.00 | 59 | 1017.4 |
| 20260903153345 | 95 | 329 | 1.7 | 5.2 | 0.00 | 0.00 | 0.00 | 59 | 1017.5 |
| 20260903153316 | 94 | 355 | 2.6 | 5.2 | 0.00 | 0.00 | 0.00 | 59 | 1017.5 |
| 20260903153031 | 94 | 47 | 3.5 | 5.2 | 0.00 | 0.00 | 0.00 | 60 | 1017.4 |
| 20260903152919 | 94 | 35 | 3.5 | 5.2 | 0.00 | 0.00 | 0.00 | 60 | 1017.4 |
| 20260903152826 | 94 | 40 | 2.6 | 5.2 | 0.00 | 0.00 | 0.00 | 60 | 1017.4 |
| 20260903152732 | 94 | 46 | 2.6 | 5.2 | 0.00 | 0.00 | 0.00 | 62 | 1017.3 |
| 20260903152639 | 94 | 44 | 2.6 | 5.2 | 0.00 | 0.00 | 0.00 | 61 | 1017.4 |
| 20260903152544 | 94 | 55 | 0.9 | 5.2 | 0.00 | 0.00 | 0.00 | 60 | 1017.5 |
| 20260903152435 | 94 | 59 | 0.0 | 5.2 | 0.00 | 0.00 | 0.00 | 59 | 1017.4 |
| 20260903152322 | 94 | 89 | 0.9 | 5.2 | 0.00 | 0.00 | 0.00 | 61 | 1017.4 |
| 20260903152229 | 94 | 76 | 1.7 | 5.2 | 0.00 | 0.00 | 0.00 | 62 | 1017.4 |
| 20260903152117 | 94 | 30 | 3.5 | 5.2 | 0.00 | 0.00 | 0.00 | 61 | 1017.4 |
| 20260903152023 | 94 | 36 | 4.3 | 5.2 | 0.00 | 0.00 | 0.00 | 61 | 1017.4 |
| 20260903151932 | 94 | 42 | 3.5 | 5.2 | 0.00 | 0.00 | 0.00 | 61 | 1017.5 |
| 20260903151843 | 94 | 37 | 2.6 | 5.2 | 0.00 | 0.00 | 0.00 | 61 | 1017.4 |
| 20260903151813 | 94 | 37 | 2.6 | 5.2 | 0.00 | 0.00 | 0.00 | 60 | 1017.4 |
| 20260903151524 | 94 | 52 | 3.5 | 5.2 | 0.00 | 0.00 | 0.00 | 62 | 1017.4 |
| 20260903151432 | 94 | 65 | 2.6 | 5.2 | 0.00 | 0.00 | 0.00 | 62 | 1017.3 |
| 20260903151322 | 94 | 355 | 2.6 | 3.5 | 0.00 | 0.00 | 0.00 | 61 | 1017.4 |
| 20260903151229 | 94 | 342 | 1.7 | 3.5 | 0.00 | 0.00 | 0.00 | 61 | 1017.4 |
| 20260903151136 | 94 | 11 | 0.9 | 3.5 | 0.00 | 0.00 | 0.00 | 60 | 1017.4 |
| 20260903151023 | 94 | 348 | 0.9 | 3.5 | 0.00 | 0.00 | 0.00 | 60 | 1017.4 |
| 20260903150930 | 94 | 305 | 0.9 | 3.5 | 0.00 | 0.00 | 0.00 | 61 | 1017.3 |
| 20260903150857 | 94 | 305 | 1.7 | 3.5 | 0.00 | 0.00 | 0.00 | 60 | 1017.3 |
| 20260903150742 | 94 | 311 | 1.7 | 5.2 | 0.00 | 0.00 | 0.00 | 61 | 1017.3 |
| 20260903150633 | 94 | 346 | 2.6 | 5.2 | 0.00 | 0.00 | 0.00 | 61 | 1017.3 |
| 20260903150540 | 93 | 333 | 1.7 | 5.2 | 0.00 | 0.00 | 0.00 | 59 | 1017.3 |
| 20260903150426 | 93 | 342 | 0.9 | 5.2 | 0.00 | 0.00 | 0.00 | 60 | 1017.2 |
| 20260903150332 | 93 | 349 | 0.9 | 5.2 | 0.00 | 0.00 | 0.00 | 59 | 1017.3 |
| 20260903150305 | 93 | 349 | 1.7 | 5.2 | 0.00 | 0.00 | 0.00 | 59 | 1017.3 |
| 20260903150044 | 93 | 86 | 2.6 | 5.2 | 0.00 | 0.00 | 0.00 | 60 | 1017.3 |
| 20260903145948 | 93 | 42 | 2.6 | 5.2 | 0.00 | 0.00 | 0.00 | 61 | 1017.3 |
| 20260903145835 | 93 | 5 | 1.7 | 4.3 | 0.00 | 0.00 | 0.00 | 59 | 1017.3 |
| 20260903145721 | 93 | 32 | 0.9 | 2.6 | 0.00 | 0.00 | 0.00 | 60 | 1017.3 |
| 20260903145629 | 92 | 43 | 0.9 | 2.6 | 0.00 | 0.00 | 0.00 | 59 | 1017.3 |
| 20260903145535 | 92 | 58 | 0.9 | 2.6 | 0.00 | 0.00 | 0.00 | 60 | 1017.3 |
| 20260903145425 | 92 | 43 | 0.9 | 3.5 | 0.00 | 0.00 | 0.00 | 62 | 1017.2 |
| 20260903145332 | 92 | 32 | 1.7 | 3.5 | 0.00 | 0.00 | 0.00 | 62 | 1017.2 |
| 20260903145239 | 92 | 33 | 2.6 | 3.5 | 0.00 | 0.00 | 0.00 | 62 | 1017.2 |
| 20260903145126 | 92 | 26 | 1.7 | 3.5 | 0.00 | 0.00 | 0.00 | 62 | 1017.3 |
| 20260903145032 | 91 | 32 | 0.9 | 3.5 | 0.00 | 0.00 | 0.00 | 62 | 1017.2 |
| 20260903144920 | 91 | 63 | 0.9 | 3.5 | 0.00 | 0.00 | 0.00 | 62 | 1017.2 |
| 20260903144830 | 91 | 34 | 1.7 | 3.5 | 0.00 | 0.00 | 0.00 | 62 | 1017.3 |
| 20260903144801 | 91 | 34 | 1.7 | 3.5 | 0.00 | 0.00 | 0.00 | 64 | 1017.3 |
| 20260903144533 | 91 | 36 | 1.7 | 3.5 | 0.00 | 0.00 | 0.00 | 65 | 1017.2 |
| 20260903144438 | 91 | 316 | 0.9 | 1.7 | 0.00 | 0.00 | 0.00 | 65 | 1017.2 |
| 20260903144325 | 91 | 302 | 0.9 | 1.7 | 0.00 | 0.00 | 0.00 | 65 | 1017.1 |
| 20260903144257 | 91 | 311 | 0.9 | 1.7 | 0.00 | 0.00 | 0.00 | 64 | 1017.1 |
| 20260903144123 | 91 | 306 | 0.9 | 1.7 | 0.00 | 0.00 | 0.00 | 64 | 1017.1 |
| 20260903144030 | 91 | 292 | 0.9 | 1.7 | 0.00 | 0.00 | 0.00 | 64 | 1017.2 |
| 20260903143936 | 91 | 292 | 0.9 | 1.7 | 0.00 | 0.00 | 0.00 | 64 | 1017.2 |
| 20260903143822 | 91 | 309 | 0.9 | 1.7 | 0.00 | 0.00 | 0.00 | 64 | 1017.2 |
| 20260903143729 | 91 | 329 | 0.9 | 1.7 | 0.00 | 0.00 | 0.00 | 64 | 1017.2 |
| 20260903143619 | 91 | 309 | 0.0 | 1.7 | 0.00 | 0.00 | 0.00 | 63 | 1017.2 |
| 20260903143525 | 91 | 268 | 0.0 | 1.7 | 0.00 | 0.00 | 0.00 | 64 | 1017.2 |
| 20260903143432 | 91 | 268 | 0.0 | 2.6 | 0.00 | 0.00 | 0.00 | 64 | 1017.1 |
| 20260903143320 | 91 | 268 | 0.0 | 2.6 | 0.00 | 0.00 | 0.00 | 64 | 1017.2 |
| 20260903143254 | 91 | 268 | 0.0 | 2.6 | 0.00 | 0.00 | 0.00 | 64 | 1017.2 |
| 20260903143026 | 91 | 268 | 0.9 | 2.6 | 0.00 | 0.00 | 0.00 | 65 | 1017.2 |
| 20260903142953 | 91 | 268 | 0.9 | 2.6 | 0.00 | 0.00 | 0.00 | 65 | 1017.2 |
| 20260903142818 | 91 | 254 | 0.9 | 2.6 | 0.00 | 0.00 | 0.00 | 67 | 1017.2 |
| 20260903142726 | 91 | 255 | 0.9 | 2.6 | 0.00 | 0.00 | 0.00 | 67 | 1017.2 |
| 20260903142633 | 91 | 255 | 1.7 | 2.6 | 0.00 | 0.00 | 0.00 | 66 | 1017.2 |
| 20260903142523 | 91 | 260 | 1.7 | 2.6 | 0.00 | 0.00 | 0.00 | 66 | 1017.2 |
| 20260903142429 | 91 | 271 | 1.7 | 2.6 | 0.00 | 0.00 | 0.00 | 66 | 1017.2 |
| 20260903142336 | 91 | 254 | 1.7 | 2.6 | 0.00 | 0.00 | 0.00 | 67 | 1017.2 |
| 20260903142222 | 90 | 263 | 0.9 | 2.6 | 0.00 | 0.00 | 0.00 | 67 | 1017.3 |
| 20260903142149 | 90 | 254 | 0.9 | 2.6 | 0.00 | 0.00 | 0.00 | 67 | 1017.2 |
| 20260903142036 | 90 | 254 | 0.0 | 1.7 | 0.00 | 0.00 | 0.00 | 67 | 1017.2 |
| 20260903141928 | 90 | 232 | 0.0 | 1.7 | 0.00 | 0.00 | 0.00 | 68 | 1017.2 |
| 20260903141836 | 90 | 232 | 0.0 | 1.7 | 0.00 | 0.00 | 0.00 | 67 | 1017.2 |
| 20260903141807 | 90 | 232 | 0.0 | 1.7 | 0.00 | 0.00 | 0.00 | 68 | 1017.2 |
| 20260903141520 | 89 | 232 | 0.0 | 2.6 | 0.00 | 0.00 | 0.00 | 69 | 1017.2 |
| 20260903141425 | 89 | 232 | 0.0 | 2.6 | 0.00 | 0.00 | 0.00 | 69 | 1017.2 |
| 20260903141317 | 89 | 232 | 0.9 | 2.6 | 0.00 | 0.00 | 0.00 | 71 | 1017.2 |
| 20260903141244 | 89 | 232 | 0.0 | 2.6 | 0.00 | 0.00 | 0.00 | 70 | 1017.2 |
| 20260903141150 | 89 | 259 | 0.0 | 2.6 | 0.00 | 0.00 | 0.00 | 69 | 1017.3 |
| 20260903141035 | 89 | 265 | 0.0 | 2.6 | 0.00 | 0.00 | 0.00 | 70 | 1017.4 |
| 20260903140922 | 89 | 265 | 0.9 | 2.6 | 0.00 | 0.00 | 0.00 | 71 | 1017.3 |
| 20260903140829 | 89 | 265 | 0.9 | 2.6 | 0.00 | 0.00 | 0.00 | 70 | 1017.2 |
| 20260903140720 | 89 | 273 | 0.9 | 2.6 | 0.00 | 0.00 | 0.00 | 71 | 1017.3 |
| 20260903140627 | 89 | 292 | 1.7 | 2.6 | 0.00 | 0.00 | 0.00 | 72 | 1017.3 |
| 20260903140533 | 89 | 268 | 1.7 | 2.6 | 0.00 | 0.00 | 0.00 | 71 | 1017.3 |
| 20260903140419 | 88 | 262 | 1.7 | 2.6 | 0.00 | 0.00 | 0.00 | 71 | 1017.4 |
| 20260903140326 | 88 | 264 | 0.9 | 2.6 | 0.00 | 0.00 | 0.00 | 71 | 1017.4 |
| 20260903140301 | 88 | 250 | 0.9 | 3.5 | 0.00 | 0.00 | 0.00 | 71 | 1017.4 |
| 20260903140034 | 88 | 268 | 0.9 | 3.5 | 0.00 | 0.00 | 0.00 | 71 | 1017.3 |
| 20260903135920 | 88 | 292 | 1.7 | 3.5 | 0.00 | 0.00 | 0.00 | 72 | 1017.5 |
| 20260903135827 | 88 | 287 | 1.7 | 3.5 | 0.00 | 0.00 | 0.00 | 71 | 1017.4 |
| 20260903135734 | 88 | 304 | 1.7 | 3.5 | 0.00 | 0.00 | 0.00 | 72 | 1017.4 |
| 20260903135625 | 87 | 290 | 1.7 | 3.5 | 0.00 | 0.00 | 0.00 | 72 | 1017.4 |
| 20260903135534 | 87 | 319 | 1.7 | 3.5 | 0.00 | 0.00 | 0.00 | 72 | 1017.4 |
| 20260903135419 | 87 | 275 | 0.9 | 3.5 | 0.00 | 0.00 | 0.00 | 73 | 1017.4 |
| 20260903135328 | 87 | 252 | 0.9 | 3.5 | 0.00 | 0.00 | 0.00 | 73 | 1017.3 |
| 20260903135235 | 87 | 199 | 1.7 | 3.5 | 0.00 | 0.00 | 0.00 | 72 | 1017.4 |
| 20260903135120 | 87 | 211 | 1.7 | 3.5 | 0.00 | 0.00 | 0.00 | 73 | 1017.4 |
| 20260903135047 | 87 | 246 | 0.9 | 2.6 | 0.00 | 0.00 | 0.00 | 74 | 1017.3 |
| 20260903134918 | 87 | 278 | 0.0 | 1.7 | 0.00 | 0.00 | 0.00 | 73 | 1017.4 |
| 20260903134825 | 87 | 278 | 0.9 | 2.6 | 0.00 | 0.00 | 0.00 | 73 | 1017.4 |
| 20260903134757 | 87 | 278 | 0.9 | 2.6 | 0.00 | 0.00 | 0.00 | 74 | 1017.4 |
| 20260903134529 | 86 | 275 | 0.9 | 2.6 | 0.00 | 0.00 | 0.00 | 74 | 1017.3 |
| 20260903134420 | 86 | 275 | 0.9 | 2.6 | 0.00 | 0.00 | 0.00 | 74 | 1017.3 |
| 20260903134328 | 86 | 306 | 0.9 | 2.6 | 0.00 | 0.00 | 0.00 | 74 | 1017.3 |
| 20260903134235 | 86 | 306 | 1.7 | 2.6 | 0.00 | 0.00 | 0.00 | 74 | 1017.4 |
| 20260903134141 | 86 | 301 | 1.7 | 2.6 | 0.00 | 0.00 | 0.00 | 74 | 1017.4 |
| 20260903134028 | 86 | 301 | 1.7 | 2.6 | 0.00 | 0.00 | 0.00 | 74 | 1017.3 |
| 20260903133956 | 86 | 295 | 1.7 | 2.6 | 0.00 | 0.00 | 0.00 | 74 | 1017.3 |
| 20260903133825 | 86 | 290 | 0.9 | 2.6 | 0.00 | 0.00 | 0.00 | 74 | 1017.4 |
| 20260903133731 | 86 | 296 | 0.9 | 2.6 | 0.00 | 0.00 | 0.00 | 74 | 1017.3 |
| 20260903133617 | 86 | 277 | 1.7 | 2.6 | 0.00 | 0.00 | 0.00 | 74 | 1017.3 |
| 20260903133545 | 86 | 305 | 0.9 | 2.6 | 0.00 | 0.00 | 0.00 | 74 | 1017.3 |
| 20260903133430 | 86 | 290 | 0.9 | 2.6 | 0.00 | 0.00 | 0.00 | 75 | 1017.3 |
| 20260903133319 | 86 | 273 | 0.9 | 2.6 | 0.00 | 0.00 | 0.00 | 75 | 1017.3 |
| 20260903133253 | 86 | 296 | 0.9 | 2.6 | 0.00 | 0.00 | 0.00 | 75 | 1017.3 |
| 20260903133027 | 85 | 268 | 1.7 | 2.6 | 0.00 | 0.00 | 0.00 | 75 | 1017.3 |
| 20260903132935 | 85 | 279 | 0.9 | 2.6 | 0.00 | 0.00 | 0.00 | 75 | 1017.3 |
| 20260903132842 | 85 | 296 | 0.9 | 2.6 | 0.00 | 0.00 | 0.00 | 76 | 1017.3 |
| 20260903132726 | 85 | 296 | 0.9 | 2.6 | 0.00 | 0.00 | 0.00 | 76 | 1017.3 |
| 20260903132617 | 85 | 273 | 1.7 | 2.6 | 0.00 | 0.00 | 0.00 | 76 | 1017.3 |
| 20260903132524 | 85 | 294 | 1.7 | 2.6 | 0.00 | 0.00 | 0.00 | 76 | 1017.2 |
| 20260903132431 | 85 | 296 | 1.7 | 2.6 | 0.00 | 0.00 | 0.00 | 76 | 1017.3 |
| 20260903132339 | 85 | 302 | 0.9 | 1.7 | 0.00 | 0.00 | 0.00 | 77 | 1017.2 |
| 20260903132223 | 85 | 286 | 0.9 | 1.7 | 0.00 | 0.00 | 0.00 | 78 | 1017.3 |
| 20260903132130 | 85 | 272 | 0.9 | 1.7 | 0.00 | 0.00 | 0.00 | 78 | 1017.3 |
| 20260903132022 | 84 | 300 | 0.9 | 1.7 | 0.00 | 0.00 | 0.00 | 78 | 1017.3 |
| 20260903131948 | 84 | 328 | 0.9 | 1.7 | 0.00 | 0.00 | 0.00 | 78 | 1017.3 |
| 20260903131836 | 84 | 338 | 0.9 | 1.7 | 0.00 | 0.00 | 0.00 | 78 | 1017.3 |
| 20260903131806 | 84 | 338 | 0.0 | 1.7 | 0.00 | 0.00 | 0.00 | 78 | 1017.3 |
| 20260903131519 | 83 | 338 | 0.0 | 1.7 | 0.00 | 0.00 | 0.00 | 79 | 1017.4 |
| 20260903131430 | 83 | 338 | 0.0 | 1.7 | 0.00 | 0.00 | 0.00 | 79 | 1017.4 |
| 20260903131317 | 83 | 338 | 0.0 | 1.7 | 0.00 | 0.00 | 0.00 | 79 | 1017.3 |
| 20260903131242 | 83 | 338 | 0.0 | 1.7 | 0.00 | 0.00 | 0.00 | 78 | 1017.3 |
| 20260903131128 | 83 | 338 | 0.0 | 1.7 | 0.00 | 0.00 | 0.00 | 78 | 1017.3 |
| 20260903131016 | 83 | 338 | 0.0 | 1.7 | 0.00 | 0.00 | 0.00 | 79 | 1017.4 |
| 20260903130923 | 82 | 338 | 0.9 | 1.7 | 0.00 | 0.00 | 0.00 | 80 | 1017.3 |
| 20260903130834 | 82 | 338 | 0.9 | 1.7 | 0.00 | 0.00 | 0.00 | 80 | 1017.4 |
| 20260903130720 | 82 | 338 | 0.9 | 1.7 | 0.00 | 0.00 | 0.00 | 81 | 1017.4 |
| 20260903130648 | 82 | 338 | 0.9 | 1.7 | 0.00 | 0.00 | 0.00 | 81 | 1017.3 |
| 20260903130535 | 82 | 338 | 0.9 | 1.7 | 0.00 | 0.00 | 0.00 | 81 | 1017.3 |
| 20260903130421 | 82 | 338 | 0.9 | 1.7 | 0.00 | 0.00 | 0.00 | 81 | 1017.3 |
| 20260903130303 | 82 | 338 | 0.9 | 1.7 | 0.00 | 0.00 | 0.00 | 82 | 1017.3 |
| 20260903130036 | 81 | 360 | 0.0 | 1.7 | 0.00 | 0.00 | 0.00 | 82 | 1017.3 |
| 20260903125922 | 81 | 360 | 0.0 | 0.0 | 0.00 | 0.00 | 0.00 | 83 | 1017.4 |
| 20260903125829 | 81 | 360 | 0.0 | 0.0 | 0.00 | 0.00 | 0.00 | 83 | 1017.4 |
| 20260903125755 | 81 | 360 | 0.0 | 0.0 | 0.00 | 0.00 | 0.00 | 83 | 1017.4 |
| 20260903125626 | 80 | 360 | 0.0 | 0.9 | 0.00 | 0.00 | 0.00 | 84 | 1017.4 |
| 20260903125534 | 80 | 360 | 0.0 | 0.9 | 0.00 | 0.00 | 0.00 | 84 | 1017.4 |
| 20260903125422 | 80 | 360 | 0.0 | 0.9 | 0.00 | 0.00 | 0.00 | 84 | 1017.4 |
| 20260903125329 | 80 | 360 | 0.0 | 1.7 | 0.00 | 0.00 | 0.00 | 84 | 1017.4 |
| 20260903125235 | 80 | 360 | 0.0 | 1.7 | 0.00 | 0.00 | 0.00 | 85 | 1017.4 |
| 20260903125122 | 80 | 360 | 0.0 | 1.7 | 0.00 | 0.00 | 0.00 | 84 | 1017.4 |
| 20260903125034 | 80 | 360 | 0.0 | 1.7 | 0.00 | 0.00 | 0.00 | 85 | 1017.4 |
| 20260903124942 | 79 | 360 | 0.0 | 2.6 | 0.00 | 0.00 | 0.00 | 85 | 1017.4 |
| 20260903124827 | 79 | 360 | 0.0 | 2.6 | 0.00 | 0.00 | 0.00 | 85 | 1017.4 |
| 20260903124759 | 79 | 360 | 0.0 | 2.6 | 0.00 | 0.00 | 0.00 | 85 | 1017.4 |
| 20260903124552 | 79 | 360 | 0.9 | 2.6 | 0.00 | 0.00 | 0.00 | 85 | 1017.3 |
| 20260903124442 | 79 | 360 | 0.9 | 3.5 | 0.00 | 0.00 | 0.00 | 85 | 1017.4 |
| 20260903124327 | 79 | 360 | 0.9 | 3.5 | 0.00 | 0.00 | 0.00 | 86 | 1017.4 |
| 20260903124235 | 79 | 360 | 0.9 | 3.5 | 0.00 | 0.00 | 0.00 | 86 | 1017.2 |
| 20260903124122 | 79 | 360 | 1.7 | 3.5 | 0.00 | 0.00 | 0.00 | 86 | 1017.3 |
| 20260903124028 | 78 | 360 | 1.7 | 3.5 | 0.00 | 0.00 | 0.00 | 87 | 1017.4 |
| 20260903123935 | 78 | 360 | 1.7 | 3.5 | 0.00 | 0.00 | 0.00 | 87 | 1017.4 |
| 20260903123827 | 78 | 360 | 1.7 | 3.5 | 0.00 | 0.00 | 0.00 | 87 | 1017.3 |
| 20260903123733 | 78 | 360 | 1.7 | 3.5 | 0.00 | 0.00 | 0.00 | 87 | 1017.3 |
| 20260903123640 | 78 | 5 | 1.7 | 3.5 | 0.00 | 0.00 | 0.00 | 87 | 1017.3 |
| 20260903123546 | 78 | 10 | 1.7 | 2.6 | 0.00 | 0.00 | 0.00 | 87 | 1017.4 |
| 20260903123433 | 78 | 48 | 1.7 | 2.6 | 0.00 | 0.00 | 0.00 | 87 | 1017.4 |
| 20260903123320 | 78 | 34 | 0.9 | 2.6 | 0.00 | 0.00 | 0.00 | 87 | 1017.3 |
| 20260903123255 | 78 | 34 | 0.9 | 2.6 | 0.00 | 0.00 | 0.00 | 88 | 1017.3 |
| 20260903123027 | 77 | 41 | 1.7 | 2.6 | 0.00 | 0.00 | 0.00 | 88 | 1017.3 |
| 20260903122935 | 77 | 41 | 1.7 | 2.6 | 0.00 | 0.00 | 0.00 | 88 | 1017.3 |
| 20260903122842 | 77 | 360 | 0.9 | 2.6 | 0.00 | 0.00 | 0.00 | 88 | 1017.2 |
| 20260903122727 | 77 | 360 | 1.7 | 2.6 | 0.00 | 0.00 | 0.00 | 88 | 1017.3 |
| 20260903122618 | 77 | 360 | 1.7 | 2.6 | 0.00 | 0.00 | 0.00 | 88 | 1017.2 |
| 20260903122526 | 77 | 360 | 1.7 | 2.6 | 0.00 | 0.00 | 0.00 | 89 | 1017.2 |
| 20260903122432 | 77 | 360 | 1.7 | 2.6 | 0.00 | 0.00 | 0.00 | 89 | 1017.2 |
| 20260903122318 | 77 | 360 | 1.7 | 3.5 | 0.00 | 0.00 | 0.00 | 89 | 1017.2 |
| 20260903122225 | 77 | 360 | 1.7 | 3.5 | 0.00 | 0.00 | 0.00 | 89 | 1017.2 |
| 20260903122118 | 76 | 360 | 1.7 | 3.5 | 0.00 | 0.00 | 0.00 | 89 | 1017.1 |
| 20260903122026 | 76 | 360 | 1.7 | 3.5 | 0.00 | 0.00 | 0.00 | 89 | 1017.1 |
| 20260903121932 | 76 | 360 | 1.7 | 3.5 | 0.00 | 0.00 | 0.00 | 89 | 1017.1 |
| 20260903121820 | 76 | 360 | 1.7 | 3.5 | 0.00 | 0.00 | 0.00 | 90 | 1017.1 |
| 20260903121751 | 76 | 360 | 1.7 | 4.3 | 0.00 | 0.00 | 0.00 | 90 | 1017.1 |
| 20260903121530 | 76 | 5 | 2.6 | 4.3 | 0.00 | 0.00 | 0.00 | 90 | 1017.1 |
| 20260903121436 | 76 | 342 | 2.6 | 4.3 | 0.00 | 0.00 | 0.00 | 90 | 1017.1 |
| 20260903121322 | 76 | 339 | 2.6 | 4.3 | 0.00 | 0.00 | 0.00 | 90 | 1017.1 |
| 20260903121228 | 76 | 333 | 2.6 | 4.3 | 0.00 | 0.00 | 0.00 | 90 | 1017.0 |
| 20260903121136 | 76 | 331 | 2.6 | 4.3 | 0.00 | 0.00 | 0.00 | 90 | 1017.1 |
| 20260903121028 | 76 | 347 | 2.6 | 4.3 | 0.00 | 0.00 | 0.00 | 90 | 1017.0 |
| 20260903120935 | 76 | 342 | 2.6 | 4.3 | 0.00 | 0.00 | 0.00 | 90 | 1017.0 |
| 20260903120823 | 76 | 333 | 2.6 | 4.3 | 0.00 | 0.00 | 0.00 | 90 | 1017.0 |
| 20260903120731 | 76 | 346 | 3.5 | 4.3 | 0.00 | 0.00 | 0.00 | 90 | 1017.1 |
| 20260903120619 | 75 | 333 | 2.6 | 3.5 | 0.00 | 0.00 | 0.00 | 90 | 1017.1 |
| 20260903120526 | 75 | 344 | 2.6 | 3.5 | 0.00 | 0.00 | 0.00 | 90 | 1017.0 |
| 20260903120438 | 75 | 344 | 2.6 | 3.5 | 0.00 | 0.00 | 0.00 | 90 | 1017.1 |
| 20260903120325 | 75 | 355 | 2.6 | 3.5 | 0.00 | 0.00 | 0.00 | 91 | 1017.1 |
| 20260903120256 | 75 | 331 | 2.6 | 4.3 | 0.00 | 0.00 | 0.00 | 91 | 1017.1 |
| 20260903120030 | 75 | 360 | 2.6 | 4.3 | 0.00 | 0.00 | 0.00 | 91 | 1017.0 |
| 20260903115921 | 75 | 5 | 2.6 | 4.3 | 0.00 | 0.00 | 0.00 | 91 | 1017.1 |
| 20260903115848 | 75 | 355 | 2.6 | 4.3 | 0.00 | 0.00 | 0.00 | 91 | 1017.0 |
| 20260903115734 | 75 | 348 | 2.6 | 4.3 | 0.00 | 0.00 | 0.00 | 91 | 1017.0 |
| 20260903115620 | 75 | 335 | 2.6 | 4.3 | 0.00 | 0.00 | 0.00 | 91 | 1017.0 |
| 20260903115527 | 75 | 333 | 2.6 | 4.3 | 0.00 | 0.00 | 0.00 | 91 | 1017.1 |
| 20260903115435 | 75 | 341 | 2.6 | 4.3 | 0.00 | 0.00 | 0.00 | 91 | 1017.0 |
| 20260903115326 | 75 | 348 | 2.6 | 4.3 | 0.00 | 0.00 | 0.00 | 91 | 1017.1 |
| 20260903115233 | 75 | 344 | 2.6 | 4.3 | 0.00 | 0.00 | 0.00 | 91 | 1017.0 |
| 20260903115121 | 75 | 345 | 1.7 | 3.5 | 0.00 | 0.00 | 0.00 | 91 | 1017.0 |
| 20260903115028 | 75 | 355 | 2.6 | 3.5 | 0.00 | 0.00 | 0.00 | 90 | 1017.0 |
| 20260903114936 | 75 | 348 | 2.6 | 3.5 | 0.00 | 0.00 | 0.00 | 90 | 1017.1 |
| 20260903114822 | 75 | 338 | 2.6 | 2.6 | 0.00 | 0.00 | 0.00 | 90 | 1017.0 |
| 20260903114756 | 75 | 339 | 2.6 | 2.6 | 0.00 | 0.00 | 0.00 | 90 | 1017.0 |
| 20260903114529 | 75 | 340 | 1.7 | 2.6 | 0.00 | 0.00 | 0.00 | 90 | 1017.1 |
| 20260903114456 | 75 | 329 | 1.7 | 2.6 | 0.00 | 0.00 | 0.00 | 89 | 1017.1 |
| 20260903114322 | 75 | 320 | 1.7 | 2.6 | 0.00 | 0.00 | 0.00 | 89 | 1017.2 |
| 20260903114249 | 75 | 350 | 1.7 | 2.6 | 0.00 | 0.00 | 0.00 | 89 | 1017.0 |
| 20260903114118 | 75 | 350 | 1.7 | 2.6 | 0.00 | 0.00 | 0.00 | 89 | 1017.1 |
| 20260903114026 | 75 | 350 | 0.9 | 2.6 | 0.00 | 0.00 | 0.00 | 89 | 1017.1 |
| 20260903113952 | 75 | 350 | 0.9 | 2.6 | 0.00 | 0.00 | 0.00 | 89 | 1017.0 |
| 20260903113819 | 75 | 350 | 0.9 | 2.6 | 0.00 | 0.00 | 0.00 | 89 | 1017.0 |
| 20260903113727 | 75 | 350 | 0.9 | 2.6 | 0.00 | 0.00 | 0.00 | 89 | 1017.1 |
| 20260903113653 | 75 | 350 | 0.9 | 2.6 | 0.00 | 0.00 | 0.00 | 90 | 1017.0 |
| 20260903113523 | 75 | 350 | 0.9 | 2.6 | 0.00 | 0.00 | 0.00 | 90 | 1016.9 |
| 20260903113430 | 75 | 350 | 1.7 | 2.6 | 0.00 | 0.00 | 0.00 | 90 | 1017.0 |
| 20260903113359 | 75 | 350 | 1.7 | 2.6 | 0.00 | 0.00 | 0.00 | 90 | 1017.0 |
| 20260903113309 | 75 | 350 | 1.7 | 2.6 | 0.00 | 0.00 | 0.00 | 90 | 1017.0 |
| 20260903113021 | 75 | 350 | 1.7 | 2.6 | 0.00 | 0.00 | 0.00 | 91 | 1017.0 |
| 20260903112932 | 75 | 350 | 1.7 | 2.6 | 0.00 | 0.00 | 0.00 | 91 | 1016.9 |
| 20260903112818 | 75 | 350 | 0.9 | 2.6 | 0.00 | 0.00 | 0.00 | 91 | 1016.9 |
| 20260903112725 | 75 | 350 | 0.0 | 0.9 | 0.00 | 0.00 | 0.00 | 91 | 1016.8 |
| 20260903112633 | 75 | 350 | 0.0 | 0.9 | 0.00 | 0.00 | 0.00 | 91 | 1016.8 |
| 20260903112519 | 75 | 350 | 0.0 | 0.9 | 0.00 | 0.00 | 0.00 | 91 | 1016.8 |
| 20260903112424 | 75 | 350 | 0.0 | 0.9 | 0.00 | 0.00 | 0.00 | 91 | 1016.8 |
| 20260903112335 | 75 | 350 | 0.0 | 0.9 | 0.00 | 0.00 | 0.00 | 91 | 1016.8 |
| 20260903112222 | 75 | 350 | 0.9 | 0.9 | 0.00 | 0.00 | 0.00 | 91 | 1016.8 |
| 20260903112129 | 75 | 350 | 0.0 | 0.9 | 0.00 | 0.00 | 0.00 | 91 | 1016.8 |
| 20260903112036 | 75 | 350 | 0.0 | 0.9 | 0.00 | 0.00 | 0.00 | 91 | 1016.8 |
| 20260903111924 | 75 | 350 | 0.0 | 0.9 | 0.00 | 0.00 | 0.00 | 91 | 1016.8 |
| 20260903111805 | 75 | 350 | 0.0 | 0.9 | 0.00 | 0.00 | 0.00 | 91 | 1016.8 |
| 20260903111518 | 75 | 350 | 0.0 | 1.7 | 0.00 | 0.00 | 0.00 | 91 | 1016.8 |
| 20260903111424 | 75 | 350 | 0.0 | 1.7 | 0.00 | 0.00 | 0.00 | 91 | 1016.8 |
| 20260903111350 | 75 | 350 | 0.0 | 1.7 | 0.00 | 0.00 | 0.00 | 91 | 1016.8 |
| 20260903111220 | 75 | 350 | 0.0 | 1.7 | 0.00 | 0.00 | 0.00 | 91 | 1016.8 |
| 20260903111127 | 75 | 350 | 0.9 | 1.7 | 0.00 | 0.00 | 0.00 | 91 | 1016.8 |
| 20260903111053 | 75 | 350 | 0.9 | 1.7 | 0.00 | 0.00 | 0.00 | 91 | 1016.7 |
| 20260903110919 | 75 | 350 | 0.9 | 1.7 | 0.00 | 0.00 | 0.00 | 91 | 1016.8 |
| 20260903110826 | 75 | 350 | 0.9 | 1.7 | 0.00 | 0.00 | 0.00 | 91 | 1016.7 |
| 20260903110732 | 75 | 350 | 0.9 | 1.7 | 0.00 | 0.00 | 0.00 | 91 | 1016.7 |
| 20260903110624 | 75 | 350 | 0.9 | 2.6 | 0.00 | 0.00 | 0.00 | 90 | 1016.7 |
| 20260903110530 | 75 | 350 | 0.9 | 2.6 | 0.00 | 0.00 | 0.00 | 90 | 1016.7 |
| 20260903110418 | 75 | 350 | 0.9 | 2.6 | 0.00 | 0.00 | 0.00 | 90 | 1016.7 |
| 20260903110324 | 75 | 350 | 0.9 | 2.6 | 0.00 | 0.00 | 0.00 | 90 | 1016.6 |
| 20260903110258 | 75 | 350 | 1.7 | 2.6 | 0.00 | 0.00 | 0.00 | 89 | 1016.6 |
| 20260903110031 | 75 | 350 | 1.7 | 2.6 | 0.00 | 0.00 | 0.00 | 89 | 1016.6 |
| 20260903105917 | 75 | 350 | 1.7 | 2.6 | 0.00 | 0.00 | 0.00 | 89 | 1016.5 |
| 20260903105825 | 75 | 350 | 1.7 | 2.6 | 0.00 | 0.00 | 0.00 | 89 | 1016.6 |
| 20260903105731 | 75 | 350 | 1.7 | 2.6 | 0.00 | 0.00 | 0.00 | 89 | 1016.6 |
| 20260903105618 | 75 | 350 | 1.7 | 2.6 | 0.00 | 0.00 | 0.00 | 89 | 1016.6 |
| 20260903105528 | 75 | 350 | 1.7 | 2.6 | 0.00 | 0.00 | 0.00 | 89 | 1016.5 |
| 20260903105436 | 75 | 350 | 1.7 | 2.6 | 0.00 | 0.00 | 0.00 | 89 | 1016.5 |
| 20260903105322 | 75 | 350 | 1.7 | 2.6 | 0.00 | 0.00 | 0.00 | 89 | 1016.5 |
| 20260903105229 | 75 | 350 | 1.7 | 2.6 | 0.00 | 0.00 | 0.00 | 89 | 1016.6 |
| 20260903105136 | 75 | 350 | 1.7 | 2.6 | 0.00 | 0.00 | 0.00 | 89 | 1016.5 |
| 20260903105028 | 75 | 350 | 1.7 | 2.6 | 0.00 | 0.00 | 0.00 | 89 | 1016.6 |
| 20260903104936 | 75 | 350 | 1.7 | 2.6 | 0.00 | 0.00 | 0.00 | 89 | 1016.6 |
| 20260903104843 | 75 | 350 | 1.7 | 1.7 | 0.00 | 0.00 | 0.00 | 89 | 1016.5 |
| 20260903104810 | 75 | 350 | 0.9 | 1.7 | 0.00 | 0.00 | 0.00 | 89 | 1016.5 |
| 20260903104523 | 75 | 350 | 1.7 | 1.7 | 0.00 | 0.00 | 0.00 | 88 | 1016.5 |
| 20260903104435 | 75 | 350 | 1.7 | 1.7 | 0.00 | 0.00 | 0.00 | 89 | 1016.5 |
| 20260903104321 | 75 | 350 | 0.9 | 1.7 | 0.00 | 0.00 | 0.00 | 89 | 1016.5 |
| 20260903104228 | 75 | 350 | 0.9 | 1.7 | 0.00 | 0.00 | 0.00 | 89 | 1016.5 |
| 20260903104135 | 75 | 350 | 0.9 | 1.7 | 0.00 | 0.00 | 0.00 | 89 | 1016.5 |
| 20260903104021 | 75 | 350 | 1.7 | 1.7 | 0.00 | 0.00 | 0.00 | 89 | 1016.6 |
| 20260903103929 | 75 | 350 | 1.7 | 1.7 | 0.00 | 0.00 | 0.00 | 89 | 1016.5 |
| 20260903103840 | 75 | 350 | 0.9 | 1.7 | 0.00 | 0.00 | 0.00 | 89 | 1016.5 |
| 20260903103726 | 75 | 350 | 0.9 | 1.7 | 0.00 | 0.00 | 0.00 | 89 | 1016.5 |
| 20260903103632 | 75 | 350 | 0.9 | 1.7 | 0.00 | 0.00 | 0.00 | 90 | 1016.5 |
| 20260903103520 | 75 | 350 | 0.9 | 1.7 | 0.00 | 0.00 | 0.00 | 90 | 1016.5 |
| 20260903103449 | 75 | 350 | 0.9 | 1.7 | 0.00 | 0.00 | 0.00 | 90 | 1016.4 |
| 20260903103308 | 75 | 350 | 0.9 | 1.7 | 0.00 | 0.00 | 0.00 | 90 | 1016.5 |
| 20260903103021 | 75 | 350 | 0.9 | 1.7 | 0.00 | 0.00 | 0.00 | 89 | 1016.5 |
| 20260903102949 | 75 | 350 | 0.9 | 1.7 | 0.00 | 0.00 | 0.00 | 89 | 1016.4 |
| 20260903102834 | 75 | 350 | 0.9 | 1.7 | 0.00 | 0.00 | 0.00 | 89 | 1016.5 |
| 20260903102720 | 75 | 350 | 0.9 | 1.7 | 0.00 | 0.00 | 0.00 | 89 | 1016.4 |
| 20260903102631 | 75 | 350 | 0.9 | 1.7 | 0.00 | 0.00 | 0.00 | 89 | 1016.5 |
| 20260903102518 | 75 | 350 | 0.0 | 1.7 | 0.00 | 0.00 | 0.00 | 90 | 1016.5 |
| 20260903102426 | 75 | 350 | 0.0 | 0.9 | 0.00 | 0.00 | 0.00 | 90 | 1016.4 |
| 20260903102335 | 75 | 350 | 0.0 | 0.9 | 0.00 | 0.00 | 0.00 | 90 | 1016.4 |
| 20260903102220 | 75 | 350 | 0.0 | 0.9 | 0.00 | 0.00 | 0.00 | 90 | 1016.4 |
| 20260903102131 | 75 | 350 | 0.0 | 0.9 | 0.00 | 0.00 | 0.00 | 90 | 1016.5 |
| 20260903102017 | 75 | 350 | 0.0 | 0.9 | 0.00 | 0.00 | 0.00 | 90 | 1016.4 |
| 20260903101925 | 75 | 350 | 0.0 | 0.9 | 0.00 | 0.00 | 0.00 | 90 | 1016.4 |
| 20260903101824 | 75 | 350 | 0.0 | 0.9 | 0.00 | 0.00 | 0.00 | 90 | 1016.4 |
| 20260903101519 | 75 | 350 | 0.0 | 0.0 | 0.00 | 0.00 | 0.00 | 90 | 1016.3 |
| 20260903101427 | 75 | 350 | 0.0 | 0.0 | 0.00 | 0.00 | 0.00 | 90 | 1016.4 |
| 20260903101354 | 75 | 350 | 0.0 | 0.0 | 0.00 | 0.00 | 0.00 | 90 | 1016.3 |
| 20260903101220 | 75 | 350 | 0.0 | 0.0 | 0.00 | 0.00 | 0.00 | 90 | 1016.4 |
| 20260903101127 | 75 | 350 | 0.0 | 0.0 | 0.00 | 0.00 | 0.00 | 90 | 1016.4 |
| 20260903101035 | 75 | 350 | 0.0 | 0.0 | 0.00 | 0.00 | 0.00 | 90 | 1016.3 |
| 20260903100925 | 75 | 350 | 0.0 | 0.0 | 0.00 | 0.00 | 0.00 | 90 | 1016.3 |
| 20260903100853 | 75 | 350 | 0.0 | 0.0 | 0.00 | 0.00 | 0.00 | 90 | 1016.3 |
| 20260903100719 | 75 | 350 | 0.0 | 0.0 | 0.00 | 0.00 | 0.00 | 90 | 1016.4 |
| 20260903100626 | 75 | 350 | 0.0 | 0.0 | 0.00 | 0.00 | 0.00 | 90 | 1016.3 |
| 20260903100534 | 75 | 350 | 0.0 | 0.0 | 0.00 | 0.00 | 0.00 | 90 | 1016.3 |
| 20260903100420 | 75 | 350 | 0.0 | 0.0 | 0.00 | 0.00 | 0.00 | 90 | 1016.3 |
| 20260903100331 | 75 | 350 | 0.0 | 0.0 | 0.00 | 0.00 | 0.00 | 90 | 1016.4 |
| 20260903100301 | 75 | 350 | 0.0 | 0.0 | 0.00 | 0.00 | 0.00 | 90 | 1016.4 |
| 20260903100034 | 75 | 350 | 0.0 | 0.0 | 0.00 | 0.00 | 0.00 | 90 | 1016.2 |
| 20260903095942 | 75 | 350 | 0.0 | 0.0 | 0.00 | 0.00 | 0.00 | 90 | 1016.3 |
| 20260903095849 | 75 | 350 | 0.0 | 0.0 | 0.00 | 0.00 | 0.00 | 90 | 1016.2 |
| 20260903095718 | 75 | 350 | 0.0 | 0.0 | 0.00 | 0.00 | 0.00 | 90 | 1016.2 |
| 20260903095626 | 75 | 350 | 0.0 | 0.0 | 0.00 | 0.00 | 0.00 | 90 | 1016.3 |
| 20260903095532 | 75 | 350 | 0.0 | 0.0 | 0.00 | 0.00 | 0.00 | 90 | 1016.2 |
| 20260903095439 | 75 | 350 | 0.0 | 0.0 | 0.00 | 0.00 | 0.00 | 90 | 1016.3 |
| 20260903095326 | 75 | 350 | 0.0 | 0.0 | 0.00 | 0.00 | 0.00 | 90 | 1016.2 |
| 20260903095232 | 75 | 350 | 0.0 | 0.0 | 0.00 | 0.00 | 0.00 | 90 | 1016.2 |
| 20260903095123 | 75 | 350 | 0.0 | 0.0 | 0.00 | 0.00 | 0.00 | 90 | 1016.2 |
| 20260903095031 | 75 | 350 | 0.0 | 0.0 | 0.00 | 0.00 | 0.00 | 90 | 1016.2 |
| 20260903094917 | 75 | 350 | 0.0 | 0.0 | 0.00 | 0.00 | 0.00 | 90 | 1016.3 |
| 20260903094844 | 75 | 350 | 0.0 | 0.0 | 0.00 | 0.00 | 0.00 | 90 | 1016.2 |
| 20260903094753 | 75 | 350 | 0.0 | 0.0 | 0.00 | 0.00 | 0.00 | 90 | 1016.2 |
| 20260903094551 | 75 | 350 | 0.0 | 0.0 | 0.00 | 0.00 | 0.00 | 90 | 1016.2 |
| 20260903094456 | 75 | 350 | 0.0 | 0.0 | 0.00 | 0.00 | 0.00 | 90 | 1016.2 |
| 20260903094321 | 75 | 350 | 0.0 | 0.0 | 0.00 | 0.00 | 0.00 | 90 | 1016.2 |
| 20260903094228 | 75 | 350 | 0.0 | 0.0 | 0.00 | 0.00 | 0.00 | 90 | 1016.2 |
| 20260903094134 | 75 | 350 | 0.0 | 0.0 | 0.00 | 0.00 | 0.00 | 90 | 1016.3 |
| 20260903094022 | 75 | 350 | 0.0 | 0.0 | 0.00 | 0.00 | 0.00 | 90 | 1016.2 |
| 20260903093951 | 75 | 350 | 0.0 | 0.0 | 0.00 | 0.00 | 0.00 | 90 | 1016.2 |
| 20260903093821 | 75 | 350 | 0.0 | 0.0 | 0.00 | 0.00 | 0.00 | 90 | 1016.2 |
| 20260903093727 | 75 | 350 | 0.0 | 0.0 | 0.00 | 0.00 | 0.00 | 90 | 1016.3 |
| 20260903093634 | 75 | 350 | 0.0 | 0.0 | 0.00 | 0.00 | 0.00 | 90 | 1016.2 |
| 20260903093521 | 75 | 350 | 0.0 | 0.0 | 0.00 | 0.00 | 0.00 | 90 | 1016.2 |
| 20260903093429 | 75 | 350 | 0.0 | 0.9 | 0.00 | 0.00 | 0.00 | 90 | 1016.2 |
| 20260903093321 | 75 | 350 | 0.0 | 0.9 | 0.00 | 0.00 | 0.00 | 90 | 1016.3 |
| 20260903093252 | 75 | 350 | 0.0 | 0.9 | 0.00 | 0.00 | 0.00 | 90 | 1016.3 |
| 20260903093025 | 75 | 350 | 0.0 | 0.9 | 0.00 | 0.00 | 0.00 | 90 | 1016.2 |
| 20260903092933 | 75 | 350 | 0.0 | 0.9 | 0.00 | 0.00 | 0.00 | 90 | 1016.2 |
| 20260903092823 | 75 | 350 | 0.0 | 0.9 | 0.00 | 0.00 | 0.00 | 90 | 1016.2 |
| 20260903092732 | 75 | 350 | 0.0 | 0.9 | 0.00 | 0.00 | 0.00 | 90 | 1016.2 |
| 20260903092618 | 75 | 350 | 0.0 | 0.9 | 0.00 | 0.00 | 0.00 | 90 | 1016.2 |
| 20260903092523 | 75 | 350 | 0.0 | 0.9 | 0.00 | 0.00 | 0.00 | 90 | 1016.2 |
| 20260903092431 | 75 | 350 | 0.0 | 1.7 | 0.00 | 0.00 | 0.00 | 90 | 1016.2 |
| 20260903092317 | 75 | 350 | 0.9 | 1.7 | 0.00 | 0.00 | 0.00 | 89 | 1016.2 |
| 20260903092229 | 75 | 350 | 0.9 | 1.7 | 0.00 | 0.00 | 0.00 | 89 | 1016.2 |
| 20260903092136 | 75 | 350 | 0.9 | 1.7 | 0.00 | 0.00 | 0.00 | 89 | 1016.1 |
| 20260903092024 | 75 | 350 | 0.9 | 1.7 | 0.00 | 0.00 | 0.00 | 89 | 1016.2 |
| 20260903091930 | 75 | 350 | 0.9 | 1.7 | 0.00 | 0.00 | 0.00 | 89 | 1016.2 |
| 20260903091817 | 75 | 350 | 0.9 | 1.7 | 0.00 | 0.00 | 0.00 | 89 | 1016.1 |
| 20260903091753 | 75 | 350 | 0.9 | 1.7 | 0.00 | 0.00 | 0.00 | 89 | 1016.1 |
| 20260903091525 | 75 | 350 | 0.9 | 1.7 | 0.00 | 0.00 | 0.00 | 89 | 1016.2 |
| 20260903091432 | 75 | 350 | 0.9 | 1.7 | 0.00 | 0.00 | 0.00 | 89 | 1016.2 |
| 20260903091318 | 75 | 350 | 0.9 | 1.7 | 0.00 | 0.00 | 0.00 | 89 | 1016.1 |
| 20260903091224 | 75 | 350 | 0.9 | 1.7 | 0.00 | 0.00 | 0.00 | 88 | 1016.2 |
| 20260903091136 | 75 | 350 | 0.9 | 1.7 | 0.00 | 0.00 | 0.00 | 89 | 1016.1 |
| 20260903091023 | 75 | 350 | 0.9 | 1.7 | 0.00 | 0.00 | 0.00 | 89 | 1016.2 |
| 20260903090931 | 75 | 350 | 0.9 | 1.7 | 0.00 | 0.00 | 0.00 | 89 | 1016.1 |
| 20260903090839 | 76 | 350 | 0.9 | 1.7 | 0.00 | 0.00 | 0.00 | 89 | 1016.1 |
| 20260903090724 | 75 | 350 | 0.9 | 1.7 | 0.00 | 0.00 | 0.00 | 89 | 1016.1 |
| 20260903090631 | 75 | 350 | 0.9 | 1.7 | 0.00 | 0.00 | 0.00 | 89 | 1016.1 |
| 20260903090522 | 76 | 350 | 0.9 | 1.7 | 0.00 | 0.00 | 0.00 | 88 | 1016.3 |
| 20260903090451 | 76 | 350 | 0.9 | 2.6 | 0.00 | 0.00 | 0.00 | 88 | 1016.2 |
| 20260903090308 | 76 | 350 | 0.9 | 2.6 | 0.00 | 0.00 | 0.00 | 88 | 1016.1 |
| 20260903090024 | 76 | 350 | 1.7 | 2.6 | 0.00 | 0.00 | 0.00 | 88 | 1016.2 |
| 20260903085930 | 76 | 350 | 1.7 | 2.6 | 0.00 | 0.00 | 0.00 | 88 | 1016.2 |
| 20260903085817 | 76 | 350 | 0.9 | 2.6 | 0.00 | 0.00 | 0.00 | 88 | 1016.1 |
| 20260903085724 | 76 | 350 | 0.9 | 2.6 | 0.00 | 0.00 | 0.00 | 88 | 1016.1 |
| 20260903085631 | 76 | 350 | 1.7 | 2.6 | 0.00 | 0.00 | 0.00 | 89 | 1016.2 |
| 20260903085538 | 76 | 350 | 1.7 | 2.6 | 0.00 | 0.00 | 0.00 | 88 | 1016.1 |
| 20260903085428 | 76 | 350 | 1.7 | 2.6 | 0.00 | 0.00 | 0.00 | 88 | 1016.2 |
| 20260903085356 | 76 | 350 | 0.9 | 2.6 | 0.00 | 0.00 | 0.00 | 88 | 1016.2 |
| 20260903085223 | 76 | 350 | 1.7 | 2.6 | 0.00 | 0.00 | 0.00 | 89 | 1016.2 |
| 20260903085130 | 76 | 350 | 1.7 | 2.6 | 0.00 | 0.00 | 0.00 | 89 | 1016.0 |
| 20260903085057 | 76 | 350 | 1.7 | 2.6 | 0.00 | 0.00 | 0.00 | 89 | 1016.1 |
| 20260903084922 | 76 | 350 | 1.7 | 2.6 | 0.00 | 0.00 | 0.00 | 89 | 1016.2 |
| 20260903084850 | 76 | 350 | 1.7 | 2.6 | 0.00 | 0.00 | 0.00 | 89 | 1016.1 |
| 20260903084802 | 76 | 350 | 1.7 | 2.6 | 0.00 | 0.00 | 0.00 | 89 | 1016.1 |
| 20260903084536 | 76 | 350 | 1.7 | 2.6 | 0.00 | 0.00 | 0.00 | 88 | 1016.1 |
| 20260903084423 | 76 | 350 | 0.9 | 1.7 | 0.00 | 0.00 | 0.00 | 88 | 1016.2 |
| 20260903084328 | 76 | 350 | 0.9 | 1.7 | 0.00 | 0.00 | 0.00 | 89 | 1016.1 |
| 20260903084219 | 76 | 350 | 0.9 | 1.7 | 0.00 | 0.00 | 0.00 | 89 | 1016.1 |
| 20260903084146 | 76 | 350 | 0.9 | 1.7 | 0.00 | 0.00 | 0.00 | 89 | 1016.1 |
| 20260903084033 | 76 | 350 | 0.9 | 1.7 | 0.00 | 0.00 | 0.00 | 89 | 1016.1 |
| 20260903083921 | 76 | 350 | 1.7 | 1.7 | 0.00 | 0.00 | 0.00 | 89 | 1016.1 |
| 20260903083826 | 76 | 350 | 1.7 | 1.7 | 0.00 | 0.00 | 0.00 | 89 | 1016.1 |
| 20260903083753 | 76 | 350 | 1.7 | 1.7 | 0.00 | 0.00 | 0.00 | 89 | 1016.0 |
| 20260903083639 | 76 | 350 | 0.9 | 1.7 | 0.00 | 0.00 | 0.00 | 88 | 1016.2 |
| 20260903083546 | 76 | 350 | 0.9 | 1.7 | 0.00 | 0.00 | 0.00 | 88 | 1016.1 |
| 20260903083436 | 76 | 350 | 1.7 | 1.7 | 0.00 | 0.00 | 0.00 | 88 | 1016.1 |
| 20260903083323 | 76 | 350 | 1.7 | 1.7 | 0.00 | 0.00 | 0.00 | 88 | 1016.1 |
| 20260903083254 | 76 | 350 | 1.7 | 1.7 | 0.00 | 0.00 | 0.00 | 86 | 1016.1 |
| 20260903083027 | 76 | 350 | 1.7 | 1.7 | 0.00 | 0.00 | 0.00 | 87 | 1016.1 |
| 20260903082917 | 76 | 350 | 1.7 | 1.7 | 0.00 | 0.00 | 0.00 | 86 | 1016.1 |
| 20260903082822 | 76 | 350 | 1.7 | 1.7 | 0.00 | 0.00 | 0.00 | 87 | 1016.0 |
| 20260903082750 | 76 | 350 | 1.7 | 1.7 | 0.00 | 0.00 | 0.00 | 87 | 1016.1 |
| 20260903082655 | 76 | 350 | 0.9 | 1.7 | 0.00 | 0.00 | 0.00 | 87 | 1016.1 |
| 20260903082519 | 76 | 350 | 0.0 | 1.7 | 0.00 | 0.00 | 0.00 | 87 | 1016.1 |
| 20260903082426 | 76 | 350 | 0.0 | 2.6 | 0.00 | 0.00 | 0.00 | 88 | 1016.1 |
| 20260903082318 | 76 | 350 | 0.9 | 2.6 | 0.00 | 0.00 | 0.00 | 87 | 1016.1 |
| 20260903082224 | 76 | 350 | 0.9 | 2.6 | 0.00 | 0.00 | 0.00 | 87 | 1016.2 |
| 20260903082130 | 76 | 350 | 0.9 | 2.6 | 0.00 | 0.00 | 0.00 | 87 | 1016.0 |
| 20260903082057 | 76 | 350 | 0.9 | 2.6 | 0.00 | 0.00 | 0.00 | 87 | 1016.1 |
| 20260903081925 | 76 | 350 | 1.7 | 2.6 | 0.00 | 0.00 | 0.00 | 87 | 1016.1 |
| 20260903081807 | 76 | 350 | 1.7 | 2.6 | 0.00 | 0.00 | 0.00 | 86 | 1016.1 |
| 20260903081519 | 76 | 350 | 1.7 | 2.6 | 0.00 | 0.00 | 0.00 | 86 | 1016.1 |
| 20260903081425 | 76 | 350 | 1.7 | 2.6 | 0.00 | 0.00 | 0.00 | 86 | 1016.0 |
| 20260903081334 | 76 | 350 | 1.7 | 2.6 | 0.00 | 0.00 | 0.00 | 87 | 1016.0 |
| 20260903081222 | 76 | 350 | 1.7 | 2.6 | 0.00 | 0.00 | 0.00 | 86 | 1016.0 |
| 20260903081133 | 76 | 350 | 1.7 | 2.6 | 0.00 | 0.00 | 0.00 | 86 | 1016.0 |
| 20260903081019 | 76 | 350 | 1.7 | 2.6 | 0.00 | 0.00 | 0.00 | 86 | 1016.1 |
| 20260903080945 | 76 | 350 | 1.7 | 2.6 | 0.00 | 0.00 | 0.00 | 86 | 1016.1 |
| 20260903080831 | 76 | 350 | 1.7 | 2.6 | 0.00 | 0.00 | 0.00 | 86 | 1016.0 |
| 20260903080718 | 76 | 350 | 1.7 | 2.6 | 0.00 | 0.00 | 0.00 | 87 | 1016.1 |
| 20260903080646 | 76 | 350 | 1.7 | 2.6 | 0.00 | 0.00 | 0.00 | 87 | 1016.1 |
| 20260903080517 | 76 | 350 | 1.7 | 2.6 | 0.00 | 0.00 | 0.00 | 87 | 1016.0 |
| 20260903080423 | 76 | 350 | 1.7 | 2.6 | 0.00 | 0.00 | 0.00 | 87 | 1016.1 |
| 20260903080301 | 76 | 350 | 0.9 | 1.7 | 0.00 | 0.00 | 0.00 | 87 | 1016.0 |
| 20260903080019 | 77 | 350 | 1.7 | 1.7 | 0.00 | 0.00 | 0.00 | 87 | 1016.1 |
| 20260903075927 | 77 | 350 | 0.9 | 1.7 | 0.00 | 0.00 | 0.00 | 87 | 1016.0 |
| 20260903075834 | 77 | 350 | 1.7 | 1.7 | 0.00 | 0.00 | 0.00 | 87 | 1016.1 |
| 20260903075721 | 77 | 350 | 0.9 | 1.7 | 0.00 | 0.00 | 0.00 | 87 | 1016.0 |
| 20260903075628 | 77 | 350 | 0.9 | 1.7 | 0.00 | 0.00 | 0.00 | 88 | 1016.1 |
| 20260903075535 | 77 | 350 | 0.9 | 1.7 | 0.00 | 0.00 | 0.00 | 88 | 1016.1 |
| 20260903075427 | 77 | 350 | 0.9 | 1.7 | 0.00 | 0.00 | 0.00 | 88 | 1016.1 |
| 20260903075353 | 77 | 350 | 0.9 | 1.7 | 0.00 | 0.00 | 0.00 | 88 | 1016.1 |
| 20260903075218 | 77 | 350 | 0.0 | 0.9 | 0.00 | 0.00 | 0.00 | 88 | 1016.1 |
| 20260903075127 | 77 | 350 | 0.0 | 0.9 | 0.00 | 0.00 | 0.00 | 88 | 1016.1 |
| 20260903075034 | 77 | 350 | 0.0 | 0.9 | 0.00 | 0.00 | 0.00 | 88 | 1016.1 |
| 20260903074942 | 77 | 350 | 0.0 | 1.7 | 0.00 | 0.00 | 0.00 | 88 | 1016.2 |
| 20260903074802 | 77 | 350 | 0.0 | 1.7 | 0.00 | 0.00 | 0.00 | 88 | 1016.2 |
| 20260903074535 | 77 | 350 | 0.0 | 1.7 | 0.00 | 0.00 | 0.00 | 88 | 1016.1 |
| 20260903074423 | 77 | 350 | 0.9 | 1.7 | 0.00 | 0.00 | 0.00 | 88 | 1016.2 |
| 20260903074330 | 77 | 350 | 0.9 | 2.6 | 0.00 | 0.00 | 0.00 | 88 | 1016.1 |
| 20260903074220 | 77 | 350 | 0.9 | 2.6 | 0.00 | 0.00 | 0.00 | 87 | 1016.2 |
| 20260903074127 | 77 | 350 | 0.9 | 2.6 | 0.00 | 0.00 | 0.00 | 87 | 1016.1 |
| 20260903074036 | 77 | 350 | 1.7 | 2.6 | 0.00 | 0.00 | 0.00 | 87 | 1016.1 |
| 20260903073923 | 77 | 350 | 1.7 | 2.6 | 0.00 | 0.00 | 0.00 | 86 | 1016.1 |
| 20260903073830 | 77 | 350 | 1.7 | 2.6 | 0.00 | 0.00 | 0.00 | 86 | 1016.1 |
| 20260903073719 | 77 | 350 | 0.9 | 2.6 | 0.00 | 0.00 | 0.00 | 86 | 1016.2 |
| 20260903073623 | 77 | 350 | 0.9 | 2.6 | 0.00 | 0.00 | 0.00 | 85 | 1016.1 |
| 20260903073529 | 77 | 350 | 1.7 | 2.6 | 0.00 | 0.00 | 0.00 | 85 | 1016.1 |
| 20260903073418 | 77 | 350 | 1.7 | 2.6 | 0.00 | 0.00 | 0.00 | 85 | 1016.2 |
| 20260903073324 | 77 | 350 | 1.7 | 2.6 | 0.00 | 0.00 | 0.00 | 85 | 1016.1 |
| 20260903073300 | 77 | 350 | 1.7 | 2.6 | 0.00 | 0.00 | 0.00 | 85 | 1016.1 |
| 20260903073033 | 77 | 350 | 1.7 | 2.6 | 0.00 | 0.00 | 0.00 | 85 | 1016.1 |
| 20260903072938 | 77 | 350 | 1.7 | 2.6 | 0.00 | 0.00 | 0.00 | 85 | 1016.1 |
| 20260903072824 | 77 | 350 | 1.7 | 2.6 | 0.00 | 0.00 | 0.00 | 85 | 1016.1 |
| 20260903072731 | 77 | 350 | 1.7 | 1.7 | 0.00 | 0.00 | 0.00 | 86 | 1016.1 |
| 20260903072657 | 77 | 350 | 1.7 | 1.7 | 0.00 | 0.00 | 0.00 | 86 | 1016.0 |
| 20260903072521 | 77 | 350 | 1.7 | 1.7 | 0.00 | 0.00 | 0.00 | 86 | 1016.1 |
| 20260903072451 | 77 | 350 | 1.7 | 1.7 | 0.00 | 0.00 | 0.00 | 86 | 1016.1 |
| 20260903072318 | 77 | 350 | 1.7 | 1.7 | 0.00 | 0.00 | 0.00 | 87 | 1016.0 |
| 20260903072245 | 77 | 350 | 0.9 | 1.7 | 0.00 | 0.00 | 0.00 | 87 | 1016.1 |
| 20260903072130 | 77 | 350 | 0.9 | 1.7 | 0.00 | 0.00 | 0.00 | 88 | 1016.1 |
| 20260903072017 | 77 | 350 | 0.9 | 1.7 | 0.00 | 0.00 | 0.00 | 87 | 1016.2 |
| 20260903071924 | 77 | 350 | 0.9 | 1.7 | 0.00 | 0.00 | 0.00 | 87 | 1016.1 |
| 20260903071835 | 77 | 350 | 0.9 | 1.7 | 0.00 | 0.00 | 0.00 | 87 | 1016.1 |
| 20260903071807 | 78 | 350 | 0.9 | 1.7 | 0.00 | 0.00 | 0.00 | 87 | 1016.1 |
| 20260903071519 | 77 | 350 | 0.9 | 1.7 | 0.00 | 0.00 | 0.00 | 87 | 1016.1 |
| 20260903071446 | 78 | 350 | 0.9 | 0.9 | 0.00 | 0.00 | 0.00 | 87 | 1016.2 |
| 20260903071332 | 77 | 350 | 0.9 | 0.9 | 0.00 | 0.00 | 0.00 | 86 | 1016.1 |
| 20260903071224 | 78 | 350 | 0.9 | 0.9 | 0.00 | 0.00 | 0.00 | 86 | 1016.1 |
| 20260903071151 | 78 | 350 | 0.9 | 0.9 | 0.00 | 0.00 | 0.00 | 86 | 1016.1 |
| 20260903071017 | 78 | 350 | 0.9 | 0.9 | 0.00 | 0.00 | 0.00 | 86 | 1016.2 |
| 20260903070923 | 78 | 350 | 0.9 | 0.9 | 0.00 | 0.00 | 0.00 | 86 | 1016.1 |
| 20260903070831 | 78 | 350 | 0.9 | 0.9 | 0.00 | 0.00 | 0.00 | 87 | 1016.1 |
| 20260903070757 | 78 | 350 | 0.9 | 0.9 | 0.00 | 0.00 | 0.00 | 87 | 1016.1 |
| 20260903070622 | 78 | 350 | 0.0 | 0.9 | 0.00 | 0.00 | 0.00 | 87 | 1016.1 |
| 20260903070532 | 78 | 350 | 0.0 | 0.9 | 0.00 | 0.00 | 0.00 | 87 | 1016.1 |
| 20260903070420 | 78 | 350 | 0.0 | 0.9 | 0.00 | 0.00 | 0.00 | 88 | 1016.1 |
| 20260903070326 | 78 | 350 | 0.0 | 0.9 | 0.00 | 0.00 | 0.00 | 88 | 1016.1 |
| 20260903070256 | 78 | 350 | 0.0 | 0.9 | 0.00 | 0.00 | 0.00 | 87 | 1016.1 |
| 20260903070032 | 78 | 350 | 0.0 | 0.9 | 0.00 | 0.00 | 0.00 | 88 | 1016.1 |
| 20260903065918 | 78 | 350 | 0.0 | 0.9 | 0.00 | 0.00 | 0.00 | 87 | 1016.1 |
| 20260903065826 | 78 | 350 | 0.0 | 0.9 | 0.00 | 0.00 | 0.00 | 87 | 1016.1 |
| 20260903065733 | 78 | 350 | 0.0 | 0.9 | 0.00 | 0.00 | 0.00 | 87 | 1016.1 |
| 20260903065638 | 78 | 350 | 0.9 | 0.9 | 0.00 | 0.00 | 0.00 | 87 | 1016.1 |
| 20260903065524 | 78 | 350 | 0.0 | 0.9 | 0.00 | 0.00 | 0.00 | 87 | 1016.1 |
| 20260903065435 | 78 | 350 | 0.0 | 0.9 | 0.00 | 0.00 | 0.00 | 87 | 1016.1 |
| 20260903065323 | 78 | 350 | 0.0 | 0.9 | 0.00 | 0.00 | 0.00 | 87 | 1016.0 |
| 20260903065228 | 78 | 350 | 0.0 | 0.9 | 0.00 | 0.00 | 0.00 | 87 | 1016.0 |
| 20260903065135 | 78 | 350 | 0.0 | 0.9 | 0.00 | 0.00 | 0.00 | 87 | 1016.1 |
| 20260903065021 | 78 | 350 | 0.0 | 0.9 | 0.00 | 0.00 | 0.00 | 87 | 1016.1 |
| 20260903064929 | 78 | 350 | 0.0 | 0.9 | 0.00 | 0.00 | 0.00 | 87 | 1016.1 |
| 20260903064810 | 78 | 350 | 0.0 | 0.9 | 0.00 | 0.00 | 0.00 | 87 | 1016.1 |
| 20260903064522 | 78 | 350 | 0.9 | 0.9 | 0.00 | 0.00 | 0.00 | 86 | 1016.2 |
| 20260903064429 | 78 | 350 | 0.9 | 0.9 | 0.00 | 0.00 | 0.00 | 86 | 1016.2 |
| 20260903064319 | 78 | 350 | 0.9 | 0.9 | 0.00 | 0.00 | 0.00 | 86 | 1016.2 |
| 20260903064226 | 78 | 350 | 0.9 | 0.9 | 0.00 | 0.00 | 0.00 | 86 | 1016.1 |
| 20260903064133 | 78 | 350 | 0.9 | 0.9 | 0.00 | 0.00 | 0.00 | 86 | 1016.2 |
| 20260903064021 | 78 | 350 | 0.9 | 0.9 | 0.00 | 0.00 | 0.00 | 86 | 1016.2 |
| 20260903063927 | 78 | 350 | 0.0 | 0.9 | 0.00 | 0.00 | 0.00 | 86 | 1016.2 |
| 20260903063854 | 78 | 350 | 0.0 | 0.9 | 0.00 | 0.00 | 0.00 | 87 | 1016.2 |
| 20260903063725 | 78 | 350 | 0.0 | 0.9 | 0.00 | 0.00 | 0.00 | 86 | 1016.2 |
| 20260903063633 | 78 | 350 | 0.0 | 0.9 | 0.00 | 0.00 | 0.00 | 86 | 1016.2 |
| 20260903063540 | 78 | 350 | 0.9 | 0.9 | 0.00 | 0.00 | 0.00 | 86 | 1016.3 |
| 20260903063426 | 78 | 350 | 0.0 | 0.9 | 0.00 | 0.00 | 0.00 | 86 | 1016.3 |
| 20260903063307 | 78 | 350 | 0.0 | 0.9 | 0.00 | 0.00 | 0.00 | 86 | 1016.2 |
| 20260903063020 | 78 | 350 | 0.0 | 0.0 | 0.00 | 0.00 | 0.00 | 86 | 1016.3 |
| 20260903062947 | 78 | 350 | 0.0 | 0.0 | 0.00 | 0.00 | 0.00 | 85 | 1016.2 |
| 20260903062854 | 78 | 350 | 0.0 | 0.0 | 0.00 | 0.00 | 0.00 | 85 | 1016.2 |
| 20260903062719 | 78 | 350 | 0.0 | 0.0 | 0.00 | 0.00 | 0.00 | 85 | 1016.2 |
| 20260903062645 | 78 | 350 | 0.0 | 0.0 | 0.00 | 0.00 | 0.00 | 86 | 1016.3 |
| 20260903062532 | 78 | 350 | 0.0 | 0.0 | 0.00 | 0.00 | 0.00 | 86 | 1016.2 |
| 20260903062422 | 78 | 350 | 0.0 | 0.0 | 0.00 | 0.00 | 0.00 | 86 | 1016.3 |
| 20260903062351 | 78 | 350 | 0.0 | 0.0 | 0.00 | 0.00 | 0.00 | 86 | 1016.2 |
| 20260903062257 | 78 | 350 | 0.0 | 0.0 | 0.00 | 0.00 | 0.00 | 86 | 1016.3 |
| 20260903062143 | 78 | 350 | 0.0 | 0.0 | 0.00 | 0.00 | 0.00 | 86 | 1016.3 |
| 20260903062030 | 78 | 350 | 0.0 | 0.0 | 0.00 | 0.00 | 0.00 | 86 | 1016.3 |
| 20260903061938 | 78 | 350 | 0.0 | 0.0 | 0.00 | 0.00 | 0.00 | 86 | 1016.3 |
| 20260903061824 | 78 | 350 | 0.0 | 0.0 | 0.00 | 0.00 | 0.00 | 86 | 1016.3 |
| 20260903061759 | 78 | 350 | 0.0 | 0.0 | 0.00 | 0.00 | 0.00 | 86 | 1016.3 |
| 20260903061532 | 78 | 350 | 0.0 | 0.0 | 0.00 | 0.00 | 0.00 | 86 | 1016.4 |
| 20260903061418 | 78 | 350 | 0.0 | 0.0 | 0.00 | 0.00 | 0.00 | 86 | 1016.3 |
| 20260903061324 | 78 | 350 | 0.0 | 0.0 | 0.00 | 0.00 | 0.00 | 85 | 1016.4 |
| 20260903061230 | 78 | 350 | 0.0 | 0.0 | 0.00 | 0.00 | 0.00 | 85 | 1016.4 |
| 20260903061120 | 78 | 350 | 0.0 | 0.0 | 0.00 | 0.00 | 0.00 | 85 | 1016.5 |
| 20260903061025 | 78 | 350 | 0.0 | 0.0 | 0.00 | 0.00 | 0.00 | 85 | 1016.4 |
| 20260903060953 | 78 | 350 | 0.0 | 0.0 | 0.00 | 0.00 | 0.00 | 86 | 1016.4 |
| 20260903060819 | 78 | 350 | 0.0 | 0.0 | 0.00 | 0.00 | 0.00 | 86 | 1016.4 |
| 20260903060725 | 78 | 350 | 0.0 | 0.0 | 0.00 | 0.00 | 0.00 | 86 | 1016.4 |
| 20260903060631 | 78 | 350 | 0.0 | 0.0 | 0.00 | 0.00 | 0.00 | 86 | 1016.3 |
| 20260903060523 | 78 | 350 | 0.0 | 0.0 | 0.00 | 0.00 | 0.00 | 86 | 1016.4 |
| 20260903060430 | 78 | 350 | 0.0 | 0.0 | 0.00 | 0.00 | 0.00 | 86 | 1016.5 |
| 20260903060357 | 78 | 350 | 0.0 | 0.0 | 0.00 | 0.00 | 0.00 | 85 | 1016.5 |
| 20260903060328 | 78 | 350 | 0.0 | 0.9 | 0.00 | 0.00 | 0.00 | 85 | 1016.5 |
| 20260903060023 | 78 | 350 | 0.0 | 0.9 | 0.00 | 0.00 | 0.00 | 86 | 1016.4 |
| 20260903055930 | 78 | 350 | 0.0 | 0.9 | 0.00 | 0.00 | 0.00 | 85 | 1016.4 |
| 20260903055836 | 78 | 350 | 0.0 | 0.9 | 0.00 | 0.00 | 0.00 | 86 | 1016.4 |
| 20260903055722 | 78 | 350 | 0.0 | 1.7 | 0.00 | 0.00 | 0.00 | 85 | 1016.4 |
| 20260903055628 | 78 | 350 | 0.0 | 1.7 | 0.00 | 0.00 | 0.00 | 85 | 1016.4 |
| 20260903055535 | 78 | 350 | 0.0 | 1.7 | 0.00 | 0.00 | 0.00 | 85 | 1016.4 |
| 20260903055426 | 78 | 350 | 0.0 | 1.7 | 0.00 | 0.00 | 0.00 | 85 | 1016.5 |
| 20260903055332 | 78 | 350 | 0.9 | 1.7 | 0.00 | 0.00 | 0.00 | 85 | 1016.4 |
| 20260903055218 | 78 | 350 | 0.9 | 1.7 | 0.00 | 0.00 | 0.00 | 85 | 1016.5 |
| 20260903055124 | 78 | 350 | 0.9 | 1.7 | 0.00 | 0.00 | 0.00 | 84 | 1016.4 |
| 20260903055031 | 78 | 350 | 0.9 | 2.6 | 0.00 | 0.00 | 0.00 | 84 | 1016.4 |
| 20260903054920 | 78 | 350 | 0.9 | 2.6 | 0.00 | 0.00 | 0.00 | 84 | 1016.5 |
| 20260903054827 | 78 | 350 | 0.9 | 2.6 | 0.00 | 0.00 | 0.00 | 83 | 1016.4 |
| 20260903054758 | 78 | 350 | 0.9 | 2.6 | 0.00 | 0.00 | 0.00 | 83 | 1016.4 |
| 20260903054551 | 78 | 350 | 0.9 | 2.6 | 0.00 | 0.00 | 0.00 | 83 | 1016.3 |
| 20260903054417 | 78 | 350 | 0.9 | 2.6 | 0.00 | 0.00 | 0.00 | 83 | 1016.4 |
| 20260903054344 | 78 | 350 | 0.9 | 2.6 | 0.00 | 0.00 | 0.00 | 84 | 1016.4 |
| 20260903054234 | 78 | 350 | 1.7 | 2.6 | 0.00 | 0.00 | 0.00 | 84 | 1016.4 |
| 20260903054119 | 78 | 350 | 1.7 | 2.6 | 0.00 | 0.00 | 0.00 | 84 | 1016.4 |
| 20260903054026 | 78 | 350 | 0.9 | 2.6 | 0.00 | 0.00 | 0.00 | 84 | 1016.4 |
| 20260903053932 | 78 | 350 | 0.9 | 2.6 | 0.00 | 0.00 | 0.00 | 83 | 1016.3 |
| 20260903053819 | 79 | 350 | 1.7 | 2.6 | 0.00 | 0.00 | 0.00 | 84 | 1016.4 |
| 20260903053726 | 78 | 350 | 1.7 | 2.6 | 0.00 | 0.00 | 0.00 | 84 | 1016.4 |
| 20260903053618 | 79 | 350 | 1.7 | 2.6 | 0.00 | 0.00 | 0.00 | 83 | 1016.4 |
| 20260903053525 | 79 | 350 | 1.7 | 2.6 | 0.00 | 0.00 | 0.00 | 83 | 1016.4 |
| 20260903053433 | 79 | 350 | 1.7 | 2.6 | 0.00 | 0.00 | 0.00 | 84 | 1016.4 |
| 20260903053318 | 79 | 350 | 1.7 | 2.6 | 0.00 | 0.00 | 0.00 | 83 | 1016.5 |
| 20260903053253 | 79 | 350 | 1.7 | 2.6 | 0.00 | 0.00 | 0.00 | 83 | 1016.5 |
| 20260903053025 | 79 | 350 | 1.7 | 2.6 | 0.00 | 0.00 | 0.00 | 83 | 1016.4 |
| 20260903052932 | 79 | 350 | 1.7 | 2.6 | 0.00 | 0.00 | 0.00 | 83 | 1016.4 |
| 20260903052819 | 79 | 350 | 1.7 | 2.6 | 0.00 | 0.00 | 0.00 | 83 | 1016.4 |
| 20260903052726 | 79 | 343 | 1.7 | 2.6 | 0.00 | 0.00 | 0.00 | 83 | 1016.4 |
| 20260903052631 | 79 | 343 | 0.9 | 2.6 | 0.00 | 0.00 | 0.00 | 84 | 1016.4 |
| 20260903052523 | 79 | 343 | 1.7 | 2.6 | 0.00 | 0.00 | 0.00 | 84 | 1016.4 |
| 20260903052430 | 79 | 343 | 1.7 | 2.6 | 0.00 | 0.00 | 0.00 | 84 | 1016.4 |
| 20260903052336 | 79 | 343 | 1.7 | 2.6 | 0.00 | 0.00 | 0.00 | 84 | 1016.4 |
| 20260903052242 | 79 | 343 | 1.7 | 2.6 | 0.00 | 0.00 | 0.00 | 84 | 1016.5 |
| 20260903052149 | 79 | 343 | 0.9 | 2.6 | 0.00 | 0.00 | 0.00 | 84 | 1016.4 |
| 20260903052035 | 79 | 343 | 0.9 | 1.7 | 0.00 | 0.00 | 0.00 | 84 | 1016.5 |
| 20260903051926 | 79 | 343 | 0.9 | 1.7 | 0.00 | 0.00 | 0.00 | 84 | 1016.4 |
| 20260903051832 | 79 | 343 | 1.7 | 1.7 | 0.00 | 0.00 | 0.00 | 84 | 1016.5 |
| 20260903051802 | 79 | 343 | 1.7 | 1.7 | 0.00 | 0.00 | 0.00 | 84 | 1016.5 |
| 20260903051535 | 79 | 343 | 0.9 | 2.6 | 0.00 | 0.00 | 0.00 | 84 | 1016.5 |
| 20260903051421 | 79 | 343 | 1.7 | 2.6 | 0.00 | 0.00 | 0.00 | 83 | 1016.5 |
| 20260903051333 | 79 | 343 | 1.7 | 2.6 | 0.00 | 0.00 | 0.00 | 83 | 1016.5 |
| 20260903051219 | 79 | 343 | 1.7 | 2.6 | 0.00 | 0.00 | 0.00 | 84 | 1016.5 |
| 20260903051127 | 79 | 343 | 0.9 | 2.6 | 0.00 | 0.00 | 0.00 | 83 | 1016.5 |
| 20260903051033 | 79 | 343 | 0.9 | 2.6 | 0.00 | 0.00 | 0.00 | 83 | 1016.5 |
| 20260903050921 | 79 | 343 | 0.9 | 2.6 | 0.00 | 0.00 | 0.00 | 83 | 1016.5 |
| 20260903050847 | 79 | 343 | 0.9 | 2.6 | 0.00 | 0.00 | 0.00 | 83 | 1016.5 |
| 20260903050736 | 79 | 343 | 1.7 | 2.6 | 0.00 | 0.00 | 0.00 | 83 | 1016.5 |
| 20260903050622 | 79 | 343 | 1.7 | 2.6 | 0.00 | 0.00 | 0.00 | 83 | 1016.5 |
| 20260903050529 | 79 | 343 | 1.7 | 2.6 | 0.00 | 0.00 | 0.00 | 83 | 1016.5 |
| 20260903050457 | 79 | 343 | 1.7 | 2.6 | 0.00 | 0.00 | 0.00 | 83 | 1016.5 |
| 20260903050322 | 80 | 343 | 0.9 | 2.6 | 0.00 | 0.00 | 0.00 | 83 | 1016.4 |
| 20260903050257 | 80 | 343 | 0.9 | 2.6 | 0.00 | 0.00 | 0.00 | 84 | 1016.4 |
| 20260903050051 | 80 | 343 | 0.0 | 0.9 | 0.00 | 0.00 | 0.00 | 84 | 1016.4 |
| 20260903045936 | 80 | 343 | 0.0 | 0.0 | 0.00 | 0.00 | 0.00 | 84 | 1016.4 |
| 20260903045824 | 80 | 343 | 0.0 | 0.0 | 0.00 | 0.00 | 0.00 | 84 | 1016.4 |
| 20260903045731 | 80 | 343 | 0.0 | 0.0 | 0.00 | 0.00 | 0.00 | 85 | 1016.4 |
| 20260903045622 | 80 | 343 | 0.0 | 0.0 | 0.00 | 0.00 | 0.00 | 85 | 1016.4 |
| 20260903045530 | 80 | 343 | 0.0 | 0.0 | 0.00 | 0.00 | 0.00 | 85 | 1016.4 |
| 20260903045417 | 80 | 343 | 0.0 | 0.0 | 0.00 | 0.00 | 0.00 | 85 | 1016.3 |
| 20260903045343 | 80 | 343 | 0.0 | 0.0 | 0.00 | 0.00 | 0.00 | 85 | 1016.3 |
| 20260903045228 | 80 | 343 | 0.0 | 0.0 | 0.00 | 0.00 | 0.00 | 85 | 1016.3 |
| 20260903045156 | 80 | 343 | 0.0 | 0.0 | 0.00 | 0.00 | 0.00 | 85 | 1016.4 |
| 20260903045022 | 80 | 343 | 0.0 | 0.0 | 0.00 | 0.00 | 0.00 | 85 | 1016.3 |
| 20260903044935 | 80 | 343 | 0.0 | 0.0 | 0.00 | 0.00 | 0.00 | 84 | 1016.4 |
| 20260903044821 | 80 | 343 | 0.0 | 0.0 | 0.00 | 0.00 | 0.00 | 84 | 1016.3 |
| 20260903044751 | 80 | 343 | 0.0 | 0.0 | 0.00 | 0.00 | 0.00 | 84 | 1016.3 |
| 20260903044524 | 80 | 343 | 0.0 | 0.0 | 0.00 | 0.00 | 0.00 | 84 | 1016.4 |
| 20260903044434 | 80 | 343 | 0.0 | 0.0 | 0.00 | 0.00 | 0.00 | 83 | 1016.3 |
| 20260903044322 | 80 | 343 | 0.0 | 0.0 | 0.00 | 0.00 | 0.00 | 83 | 1016.3 |
| 20260903044228 | 80 | 343 | 0.0 | 0.0 | 0.00 | 0.00 | 0.00 | 83 | 1016.3 |
| 20260903044134 | 80 | 343 | 0.0 | 0.0 | 0.00 | 0.00 | 0.00 | 82 | 1016.3 |
| 20260903044022 | 80 | 343 | 0.0 | 0.0 | 0.00 | 0.00 | 0.00 | 82 | 1016.3 |
| 20260903043929 | 80 | 343 | 0.0 | 0.0 | 0.00 | 0.00 | 0.00 | 81 | 1016.4 |
| 20260903043822 | 80 | 343 | 0.0 | 0.0 | 0.00 | 0.00 | 0.00 | 81 | 1016.4 |
| 20260903043750 | 80 | 343 | 0.0 | 0.0 | 0.00 | 0.00 | 0.00 | 81 | 1016.4 |
| 20260903043616 | 80 | 343 | 0.0 | 0.0 | 0.00 | 0.00 | 0.00 | 81 | 1016.4 |
| 20260903043523 | 80 | 343 | 0.0 | 0.0 | 0.00 | 0.00 | 0.00 | 80 | 1016.4 |
| 20260903043450 | 80 | 343 | 0.0 | 0.0 | 0.00 | 0.00 | 0.00 | 81 | 1016.3 |
| 20260903043336 | 80 | 343 | 0.0 | 0.0 | 0.00 | 0.00 | 0.00 | 81 | 1016.4 |
| 20260903043252 | 80 | 343 | 0.0 | 0.0 | 0.00 | 0.00 | 0.00 | 81 | 1016.4 |
| 20260903043043 | 80 | 343 | 0.0 | 0.0 | 0.00 | 0.00 | 0.00 | 81 | 1016.3 |
| 20260903042929 | 80 | 343 | 0.0 | 0.0 | 0.00 | 0.00 | 0.00 | 81 | 1016.4 |
| 20260903042836 | 80 | 343 | 0.0 | 0.0 | 0.00 | 0.00 | 0.00 | 82 | 1016.3 |
| 20260903042722 | 80 | 343 | 0.0 | 0.0 | 0.00 | 0.00 | 0.00 | 83 | 1016.4 |
| 20260903042634 | 80 | 343 | 0.0 | 0.0 | 0.00 | 0.00 | 0.00 | 83 | 1016.3 |
| 20260903042522 | 80 | 343 | 0.0 | 0.0 | 0.00 | 0.00 | 0.00 | 83 | 1016.4 |
| 20260903042429 | 80 | 343 | 0.0 | 0.0 | 0.00 | 0.00 | 0.00 | 83 | 1016.3 |
| 20260903042317 | 80 | 343 | 0.0 | 0.0 | 0.00 | 0.00 | 0.00 | 83 | 1016.3 |
| 20260903042243 | 80 | 343 | 0.0 | 0.0 | 0.00 | 0.00 | 0.00 | 83 | 1016.3 |
| 20260903042148 | 80 | 343 | 0.0 | 0.0 | 0.00 | 0.00 | 0.00 | 83 | 1016.4 |
| 20260903042017 | 81 | 343 | 0.0 | 0.0 | 0.00 | 0.00 | 0.00 | 83 | 1016.4 |
| 20260903041924 | 80 | 343 | 0.0 | 0.0 | 0.00 | 0.00 | 0.00 | 83 | 1016.3 |
| 20260903041822 | 80 | 343 | 0.0 | 0.0 | 0.00 | 0.00 | 0.00 | 83 | 1016.3 |
| 20260903041535 | 80 | 343 | 0.0 | 0.0 | 0.00 | 0.00 | 0.00 | 83 | 1016.2 |
| 20260903041427 | 81 | 343 | 0.0 | 0.0 | 0.00 | 0.00 | 0.00 | 83 | 1016.3 |
| 20260903041333 | 81 | 343 | 0.0 | 0.0 | 0.00 | 0.00 | 0.00 | 83 | 1016.3 |
| 20260903041219 | 81 | 343 | 0.0 | 0.0 | 0.00 | 0.00 | 0.00 | 83 | 1016.2 |
| 20260903041127 | 81 | 343 | 0.0 | 0.0 | 0.00 | 0.00 | 0.00 | 83 | 1016.2 |
| 20260903041054 | 80 | 343 | 0.0 | 0.0 | 0.00 | 0.00 | 0.00 | 83 | 1016.2 |
| 20260903040919 | 80 | 343 | 0.0 | 0.0 | 0.00 | 0.00 | 0.00 | 83 | 1016.2 |
| 20260903040829 | 80 | 343 | 0.0 | 0.0 | 0.00 | 0.00 | 0.00 | 83 | 1016.3 |
| 20260903040717 | 80 | 343 | 0.0 | 0.0 | 0.00 | 0.00 | 0.00 | 83 | 1016.2 |
| 20260903040623 | 80 | 343 | 0.0 | 0.9 | 0.00 | 0.00 | 0.00 | 82 | 1016.2 |
| 20260903040529 | 80 | 343 | 0.0 | 1.7 | 0.00 | 0.00 | 0.00 | 81 | 1016.2 |
| 20260903040417 | 80 | 343 | 0.0 | 1.7 | 0.00 | 0.00 | 0.00 | 81 | 1016.2 |
| 20260903040343 | 80 | 343 | 0.0 | 1.7 | 0.00 | 0.00 | 0.00 | 81 | 1016.3 |
| 20260903040257 | 80 | 343 | 0.0 | 1.7 | 0.00 | 0.00 | 0.00 | 82 | 1016.3 |
| 20260903040029 | 80 | 343 | 0.0 | 1.7 | 0.00 | 0.00 | 0.00 | 82 | 1016.2 |
| 20260903035936 | 80 | 343 | 0.0 | 1.7 | 0.00 | 0.00 | 0.00 | 81 | 1016.3 |
| 20260903035823 | 80 | 343 | 0.0 | 1.7 | 0.00 | 0.00 | 0.00 | 80 | 1016.2 |
| 20260903035733 | 80 | 343 | 0.9 | 1.7 | 0.00 | 0.00 | 0.00 | 80 | 1016.2 |
| 20260903035619 | 80 | 343 | 0.9 | 1.7 | 0.00 | 0.00 | 0.00 | 80 | 1016.2 |
| 20260903035527 | 81 | 343 | 0.0 | 1.7 | 0.00 | 0.00 | 0.00 | 81 | 1016.3 |
| 20260903035455 | 81 | 343 | 0.0 | 0.0 | 0.00 | 0.00 | 0.00 | 81 | 1016.2 |
| 20260903035320 | 81 | 343 | 0.0 | 0.0 | 0.00 | 0.00 | 0.00 | 80 | 1016.2 |
| 20260903035246 | 81 | 343 | 0.0 | 0.0 | 0.00 | 0.00 | 0.00 | 80 | 1016.2 |
| 20260903035132 | 81 | 343 | 0.0 | 0.0 | 0.00 | 0.00 | 0.00 | 80 | 1016.2 |
| 20260903035023 | 81 | 310 | 0.0 | 0.0 | 0.00 | 0.00 | 0.00 | 80 | 1016.2 |
| 20260903034950 | 81 | 307 | 0.0 | 0.0 | 0.00 | 0.00 | 0.00 | 80 | 1016.3 |
| 20260903034835 | 81 | 307 | 0.0 | 0.0 | 0.00 | 0.00 | 0.00 | 80 | 1016.3 |
| 20260903034805 | 81 | 307 | 0.0 | 0.0 | 0.00 | 0.00 | 0.00 | 80 | 1016.3 |
| 20260903034521 | 81 | 307 | 0.0 | 0.0 | 0.00 | 0.00 | 0.00 | 80 | 1016.3 |
| 20260903034428 | 81 | 307 | 0.0 | 0.0 | 0.00 | 0.00 | 0.00 | 81 | 1016.3 |
| 20260903034334 | 81 | 307 | 0.0 | 0.0 | 0.00 | 0.00 | 0.00 | 81 | 1016.4 |
| 20260903034222 | 81 | 307 | 0.0 | 0.0 | 0.00 | 0.00 | 0.00 | 80 | 1016.4 |
| 20260903034128 | 81 | 307 | 0.0 | 0.0 | 0.00 | 0.00 | 0.00 | 80 | 1016.4 |
| 20260903034035 | 81 | 307 | 0.0 | 0.0 | 0.00 | 0.00 | 0.00 | 81 | 1016.4 |
| 20260903033947 | 81 | 307 | 0.0 | 0.0 | 0.00 | 0.00 | 0.00 | 81 | 1016.4 |
| 20260903033853 | 81 | 307 | 0.0 | 0.0 | 0.00 | 0.00 | 0.00 | 81 | 1016.4 |
| 20260903033719 | 81 | 307 | 0.0 | 0.0 | 0.00 | 0.00 | 0.00 | 81 | 1016.4 |
| 20260903033646 | 81 | 307 | 0.0 | 0.0 | 0.00 | 0.00 | 0.00 | 80 | 1016.4 |
| 20260903033532 | 81 | 307 | 0.0 | 0.0 | 0.00 | 0.00 | 0.00 | 80 | 1016.4 |
| 20260903033440 | 81 | 307 | 0.0 | 0.0 | 0.00 | 0.00 | 0.00 | 81 | 1016.4 |
| 20260903033301 | 81 | 307 | 0.0 | 0.0 | 0.00 | 0.00 | 0.00 | 81 | 1016.5 |
| 20260903033034 | 81 | 307 | 0.0 | 0.0 | 0.00 | 0.00 | 0.00 | 81 | 1016.4 |
| 20260903032921 | 81 | 307 | 0.0 | 0.0 | 0.00 | 0.00 | 0.00 | 81 | 1016.5 |
| 20260903032828 | 82 | 307 | 0.0 | 0.0 | 0.00 | 0.00 | 0.00 | 81 | 1016.5 |
| 20260903032756 | 82 | 307 | 0.0 | 0.0 | 0.00 | 0.00 | 0.00 | 81 | 1016.6 |
| 20260903032626 | 82 | 307 | 0.0 | 0.0 | 0.00 | 0.00 | 0.00 | 81 | 1016.5 |
| 20260903032532 | 82 | 307 | 0.0 | 0.0 | 0.00 | 0.00 | 0.00 | 81 | 1016.5 |
| 20260903032439 | 82 | 307 | 0.0 | 0.0 | 0.00 | 0.00 | 0.00 | 81 | 1016.5 |
| 20260903032345 | 82 | 307 | 0.0 | 0.0 | 0.00 | 0.00 | 0.00 | 81 | 1016.5 |
| 20260903032232 | 82 | 307 | 0.0 | 0.0 | 0.00 | 0.00 | 0.00 | 81 | 1016.5 |
| 20260903032138 | 82 | 307 | 0.0 | 0.0 | 0.00 | 0.00 | 0.00 | 81 | 1016.5 |
| 20260903032045 | 82 | 307 | 0.0 | 0.0 | 0.00 | 0.00 | 0.00 | 82 | 1016.5 |
| 20260903031929 | 82 | 307 | 0.0 | 0.0 | 0.00 | 0.00 | 0.00 | 82 | 1016.5 |
| 20260903031900 | 82 | 307 | 0.0 | 0.0 | 0.00 | 0.00 | 0.00 | 82 | 1016.5 |
| 20260903031809 | 82 | 307 | 0.0 | 0.0 | 0.00 | 0.00 | 0.00 | 81 | 1016.5 |
| 20260903031522 | 82 | 307 | 0.0 | 0.0 | 0.00 | 0.00 | 0.00 | 81 | 1016.5 |
| 20260903031429 | 82 | 307 | 0.0 | 0.0 | 0.00 | 0.00 | 0.00 | 80 | 1016.5 |
| 20260903031320 | 82 | 307 | 0.0 | 0.0 | 0.00 | 0.00 | 0.00 | 80 | 1016.5 |
| 20260903031227 | 82 | 307 | 0.0 | 0.0 | 0.00 | 0.00 | 0.00 | 80 | 1016.5 |
| 20260903031135 | 82 | 307 | 0.0 | 0.0 | 0.00 | 0.00 | 0.00 | 80 | 1016.5 |
| 20260903031022 | 82 | 307 | 0.0 | 0.0 | 0.00 | 0.00 | 0.00 | 80 | 1016.5 |
| 20260903030930 | 82 | 307 | 0.0 | 0.0 | 0.00 | 0.00 | 0.00 | 80 | 1016.5 |
| 20260903030817 | 82 | 307 | 0.0 | 0.0 | 0.00 | 0.00 | 0.00 | 80 | 1016.4 |
| 20260903030747 | 82 | 307 | 0.0 | 0.0 | 0.00 | 0.00 | 0.00 | 80 | 1016.5 |
| 20260903030633 | 82 | 307 | 0.0 | 0.9 | 0.00 | 0.00 | 0.00 | 80 | 1016.5 |
| 20260903030520 | 82 | 307 | 0.0 | 1.7 | 0.00 | 0.00 | 0.00 | 80 | 1016.4 |
| 20260903030427 | 82 | 307 | 0.0 | 1.7 | 0.00 | 0.00 | 0.00 | 79 | 1016.5 |
| 20260903030308 | 82 | 307 | 0.0 | 1.7 | 0.00 | 0.00 | 0.00 | 79 | 1016.5 |
| 20260903030022 | 83 | 307 | 0.0 | 1.7 | 0.00 | 0.00 | 0.00 | 79 | 1016.4 |
| 20260903025929 | 83 | 307 | 0.0 | 1.7 | 0.00 | 0.00 | 0.00 | 79 | 1016.4 |
| 20260903025836 | 83 | 307 | 0.9 | 1.7 | 0.00 | 0.00 | 0.00 | 79 | 1016.4 |
| 20260903025722 | 83 | 307 | 0.9 | 1.7 | 0.00 | 0.00 | 0.00 | 79 | 1016.4 |
| 20260903025633 | 83 | 307 | 0.9 | 1.7 | 0.00 | 0.00 | 0.00 | 79 | 1016.3 |
| 20260903025539 | 83 | 307 | 0.0 | 1.7 | 0.00 | 0.00 | 0.00 | 79 | 1016.4 |
| 20260903025424 | 83 | 334 | 0.0 | 0.0 | 0.00 | 0.00 | 0.00 | 79 | 1016.3 |
| 20260903025332 | 83 | 334 | 0.0 | 0.0 | 0.00 | 0.00 | 0.00 | 79 | 1016.3 |
| 20260903025220 | 83 | 334 | 0.0 | 0.0 | 0.00 | 0.00 | 0.00 | 79 | 1016.3 |
| 20260903025149 | 83 | 334 | 0.0 | 0.0 | 0.00 | 0.00 | 0.00 | 78 | 1016.3 |
| 20260903025055 | 83 | 334 | 0.0 | 0.0 | 0.00 | 0.00 | 0.00 | 78 | 1016.3 |
| 20260903024925 | 83 | 334 | 0.0 | 0.9 | 0.00 | 0.00 | 0.00 | 78 | 1016.4 |
| 20260903024803 | 83 | 334 | 0.0 | 0.9 | 0.00 | 0.00 | 0.00 | 78 | 1016.4 |
| 20260903024536 | 83 | 334 | 0.0 | 0.9 | 0.00 | 0.00 | 0.00 | 78 | 1016.4 |
| 20260903024426 | 83 | 334 | 0.0 | 0.9 | 0.00 | 0.00 | 0.00 | 76 | 1016.3 |
| 20260903024334 | 83 | 334 | 0.0 | 0.9 | 0.00 | 0.00 | 0.00 | 76 | 1016.4 |
| 20260903024221 | 83 | 334 | 0.0 | 0.9 | 0.00 | 0.00 | 0.00 | 76 | 1016.4 |
| 20260903024127 | 83 | 334 | 0.0 | 0.9 | 0.00 | 0.00 | 0.00 | 76 | 1016.4 |
| 20260903024053 | 83 | 334 | 0.0 | 0.0 | 0.00 | 0.00 | 0.00 | 75 | 1016.4 |
| 20260903023920 | 83 | 334 | 0.0 | 0.0 | 0.00 | 0.00 | 0.00 | 75 | 1016.4 |
| 20260903023831 | 83 | 334 | 0.0 | 0.0 | 0.00 | 0.00 | 0.00 | 75 | 1016.4 |
| 20260903023717 | 83 | 334 | 0.0 | 0.0 | 0.00 | 0.00 | 0.00 | 75 | 1016.4 |
| 20260903023624 | 83 | 334 | 0.0 | 0.0 | 0.00 | 0.00 | 0.00 | 75 | 1016.3 |
| 20260903023530 | 83 | 334 | 0.0 | 0.0 | 0.00 | 0.00 | 0.00 | 75 | 1016.3 |
| 20260903023417 | 83 | 334 | 0.0 | 0.0 | 0.00 | 0.00 | 0.00 | 75 | 1016.3 |
| 20260903023345 | 83 | 334 | 0.0 | 0.0 | 0.00 | 0.00 | 0.00 | 75 | 1016.3 |
| 20260903023259 | 83 | 334 | 0.0 | 0.0 | 0.00 | 0.00 | 0.00 | 75 | 1016.3 |
| 20260903023031 | 83 | 334 | 0.0 | 0.0 | 0.00 | 0.00 | 0.00 | 75 | 1016.4 |
| 20260903022919 | 84 | 334 | 0.0 | 0.0 | 0.00 | 0.00 | 0.00 | 75 | 1016.3 |
| 20260903022826 | 84 | 334 | 0.0 | 0.0 | 0.00 | 0.00 | 0.00 | 75 | 1016.4 |
| 20260903022732 | 84 | 334 | 0.0 | 0.0 | 0.00 | 0.00 | 0.00 | 75 | 1016.4 |
| 20260903022622 | 84 | 334 | 0.0 | 0.0 | 0.00 | 0.00 | 0.00 | 75 | 1016.3 |
| 20260903022530 | 84 | 334 | 0.0 | 0.0 | 0.00 | 0.00 | 0.00 | 75 | 1016.3 |
| 20260903022416 | 84 | 334 | 0.0 | 0.0 | 0.00 | 0.00 | 0.00 | 75 | 1016.3 |
| 20260903022323 | 84 | 334 | 0.0 | 0.0 | 0.00 | 0.00 | 0.00 | 75 | 1016.3 |
| 20260903022229 | 84 | 334 | 0.0 | 0.0 | 0.00 | 0.00 | 0.00 | 75 | 1016.3 |
| 20260903022120 | 84 | 334 | 0.0 | 0.0 | 0.00 | 0.00 | 0.00 | 75 | 1016.3 |
| 20260903022027 | 84 | 334 | 0.0 | 0.0 | 0.00 | 0.00 | 0.00 | 74 | 1016.3 |
| 20260903021935 | 84 | 334 | 0.0 | 0.0 | 0.00 | 0.00 | 0.00 | 74 | 1016.4 |
| 20260903021823 | 84 | 334 | 0.0 | 0.0 | 0.00 | 0.00 | 0.00 | 74 | 1016.3 |
| 20260903021751 | 84 | 334 | 0.0 | 0.0 | 0.00 | 0.00 | 0.00 | 74 | 1016.4 |
| 20260903021529 | 84 | 334 | 0.0 | 0.0 | 0.00 | 0.00 | 0.00 | 74 | 1016.3 |
| 20260903021435 | 84 | 334 | 0.0 | 0.0 | 0.00 | 0.00 | 0.00 | 74 | 1016.4 |
| 20260903021322 | 84 | 334 | 0.0 | 0.0 | 0.00 | 0.00 | 0.00 | 74 | 1016.4 |
| 20260903021229 | 84 | 334 | 0.0 | 0.0 | 0.00 | 0.00 | 0.00 | 74 | 1016.3 |
| 20260903021135 | 84 | 334 | 0.0 | 0.0 | 0.00 | 0.00 | 0.00 | 74 | 1016.3 |
| 20260903021025 | 84 | 334 | 0.0 | 0.0 | 0.00 | 0.00 | 0.00 | 74 | 1016.3 |
| 20260903020934 | 84 | 334 | 0.0 | 0.0 | 0.00 | 0.00 | 0.00 | 74 | 1016.3 |
| 20260903020820 | 84 | 334 | 0.0 | 0.0 | 0.00 | 0.00 | 0.00 | 74 | 1016.2 |
| 20260903020727 | 84 | 334 | 0.0 | 0.0 | 0.00 | 0.00 | 0.00 | 74 | 1016.3 |
| 20260903020635 | 84 | 334 | 0.0 | 0.0 | 0.00 | 0.00 | 0.00 | 74 | 1016.2 |
| 20260903020520 | 84 | 334 | 0.0 | 0.0 | 0.00 | 0.00 | 0.00 | 73 | 1016.3 |
| 20260903020431 | 84 | 334 | 0.0 | 0.0 | 0.00 | 0.00 | 0.00 | 73 | 1016.3 |
| 20260903020310 | 84 | 334 | 0.0 | 0.0 | 0.00 | 0.00 | 0.00 | 73 | 1016.3 |
| 20260903020022 | 84 | 334 | 0.0 | 0.0 | 0.00 | 0.00 | 0.00 | 73 | 1016.4 |
| 20260903015934 | 84 | 334 | 0.0 | 0.0 | 0.00 | 0.00 | 0.00 | 72 | 1016.3 |
| 20260903015819 | 84 | 334 | 0.0 | 0.0 | 0.00 | 0.00 | 0.00 | 72 | 1016.3 |
| 20260903015745 | 84 | 334 | 0.0 | 0.0 | 0.00 | 0.00 | 0.00 | 72 | 1016.3 |
| 20260903015630 | 85 | 334 | 0.0 | 0.0 | 0.00 | 0.00 | 0.00 | 72 | 1016.4 |
| 20260903015556 | 85 | 334 | 0.0 | 0.9 | 0.00 | 0.00 | 0.00 | 72 | 1016.3 |
| 20260903015424 | 85 | 334 | 0.0 | 1.7 | 0.00 | 0.00 | 0.00 | 72 | 1016.4 |
| 20260903015332 | 85 | 334 | 0.0 | 1.7 | 0.00 | 0.00 | 0.00 | 72 | 1016.3 |
| 20260903015222 | 85 | 334 | 0.0 | 1.7 | 0.00 | 0.00 | 0.00 | 72 | 1016.3 |
| 20260903015129 | 85 | 334 | 0.0 | 1.7 | 0.00 | 0.00 | 0.00 | 71 | 1016.3 |
| 20260903015056 | 85 | 334 | 0.0 | 1.7 | 0.00 | 0.00 | 0.00 | 71 | 1016.3 |
| 20260903014922 | 85 | 334 | 0.0 | 1.7 | 0.00 | 0.00 | 0.00 | 71 | 1016.3 |
| 20260903014802 | 85 | 334 | 0.9 | 1.7 | 0.00 | 0.00 | 0.00 | 71 | 1016.2 |
| 20260903014556 | 85 | 334 | 0.9 | 1.7 | 0.00 | 0.00 | 0.00 | 71 | 1016.3 |
| 20260903014421 | 85 | 334 | 0.9 | 1.7 | 0.00 | 0.00 | 0.00 | 72 | 1016.3 |
| 20260903014328 | 85 | 334 | 0.0 | 1.7 | 0.00 | 0.00 | 0.00 | 72 | 1016.3 |
| 20260903014254 | 85 | 325 | 0.0 | 0.0 | 0.00 | 0.00 | 0.00 | 72 | 1016.2 |
| 20260903014120 | 85 | 325 | 0.0 | 0.0 | 0.00 | 0.00 | 0.00 | 72 | 1016.2 |
| 20260903014032 | 86 | 325 | 0.0 | 0.0 | 0.00 | 0.00 | 0.00 | 72 | 1016.3 |
| 20260903013919 | 86 | 325 | 0.0 | 0.0 | 0.00 | 0.00 | 0.00 | 73 | 1016.3 |
| 20260903013827 | 86 | 325 | 0.0 | 0.0 | 0.00 | 0.00 | 0.00 | 72 | 1016.2 |
| 20260903013733 | 86 | 325 | 0.0 | 0.0 | 0.00 | 0.00 | 0.00 | 72 | 1016.3 |
| 20260903013620 | 86 | 325 | 0.0 | 0.0 | 0.00 | 0.00 | 0.00 | 72 | 1016.2 |
| 20260903013547 | 86 | 325 | 0.0 | 0.0 | 0.00 | 0.00 | 0.00 | 72 | 1016.2 |
| 20260903013452 | 86 | 325 | 0.0 | 0.0 | 0.00 | 0.00 | 0.00 | 72 | 1016.2 |
| 20260903013343 | 86 | 325 | 0.0 | 0.0 | 0.00 | 0.00 | 0.00 | 72 | 1016.1 |
| 20260903013253 | 86 | 325 | 0.0 | 0.0 | 0.00 | 0.00 | 0.00 | 72 | 1016.1 |
| 20260903013026 | 86 | 5 | 0.0 | 0.0 | 0.00 | 0.00 | 0.00 | 72 | 1016.1 |
| 20260903012933 | 86 | 5 | 0.0 | 0.0 | 0.00 | 0.00 | 0.00 | 72 | 1016.1 |
| 20260903012824 | 86 | 5 | 0.0 | 0.0 | 0.00 | 0.00 | 0.00 | 72 | 1016.0 |
| 20260903012731 | 86 | 5 | 0.0 | 0.0 | 0.00 | 0.00 | 0.00 | 71 | 1016.1 |
| 20260903012619 | 86 | 5 | 0.0 | 0.0 | 0.00 | 0.00 | 0.00 | 71 | 1016.0 |
| 20260903012526 | 86 | 5 | 0.0 | 0.0 | 0.00 | 0.00 | 0.00 | 70 | 1016.0 |
| 20260903012434 | 86 | 5 | 0.0 | 0.0 | 0.00 | 0.00 | 0.00 | 71 | 1016.0 |
| 20260903012321 | 86 | 5 | 0.0 | 0.0 | 0.00 | 0.00 | 0.00 | 71 | 1016.0 |
| 20260903012253 | 86 | 5 | 0.0 | 0.0 | 0.00 | 0.00 | 0.00 | 70 | 1016.0 |
| 20260903012119 | 86 | 5 | 0.0 | 0.0 | 0.00 | 0.00 | 0.00 | 71 | 1016.0 |
| 20260903012026 | 86 | 5 | 0.0 | 0.0 | 0.00 | 0.00 | 0.00 | 70 | 1016.0 |
| 20260903011933 | 86 | 5 | 0.0 | 0.0 | 0.00 | 0.00 | 0.00 | 70 | 1015.9 |
| 20260903011818 | 86 | 5 | 0.0 | 0.0 | 0.00 | 0.00 | 0.00 | 70 | 1016.0 |
| 20260903011752 | 86 | 5 | 0.0 | 0.0 | 0.00 | 0.00 | 0.00 | 68 | 1015.9 |
| 20260903011545 | 87 | 5 | 0.0 | 0.9 | 0.00 | 0.00 | 0.00 | 67 | 1015.9 |
| 20260903011432 | 87 | 5 | 0.0 | 0.9 | 0.00 | 0.00 | 0.00 | 67 | 1015.9 |
| 20260903011317 | 87 | 5 | 0.0 | 1.7 | 0.00 | 0.00 | 0.00 | 67 | 1015.8 |
| 20260903011226 | 87 | 5 | 0.0 | 1.7 | 0.00 | 0.00 | 0.00 | 67 | 1015.9 |
| 20260903011134 | 87 | 5 | 0.0 | 1.7 | 0.00 | 0.00 | 0.00 | 67 | 1015.9 |
| 20260903011026 | 87 | 5 | 0.0 | 2.6 | 0.00 | 0.00 | 0.00 | 67 | 1015.7 |
| 20260903010932 | 87 | 5 | 0.0 | 2.6 | 0.00 | 0.00 | 0.00 | 67 | 1015.8 |
| 20260903010819 | 87 | 5 | 0.0 | 2.6 | 0.00 | 0.00 | 0.00 | 67 | 1015.8 |
| 20260903010727 | 87 | 5 | 0.0 | 2.6 | 0.00 | 0.00 | 0.00 | 66 | 1015.8 |
| 20260903010634 | 87 | 5 | 0.9 | 2.6 | 0.00 | 0.00 | 0.00 | 65 | 1015.7 |
| 20260903010542 | 87 | 5 | 0.9 | 2.6 | 0.00 | 0.00 | 0.00 | 65 | 1015.8 |
| 20260903010432 | 87 | 5 | 1.7 | 2.6 | 0.00 | 0.00 | 0.00 | 65 | 1015.8 |
| 20260903010308 | 88 | 5 | 1.7 | 3.5 | 0.00 | 0.00 | 0.00 | 64 | 1015.7 |
| 20260903010023 | 88 | 5 | 1.7 | 3.5 | 0.00 | 0.00 | 0.00 | 64 | 1015.9 |
| 20260903005933 | 88 | 5 | 1.7 | 3.5 | 0.00 | 0.00 | 0.00 | 65 | 1015.7 |
| 20260903005840 | 88 | 14 | 1.7 | 3.5 | 0.00 | 0.00 | 0.00 | 64 | 1015.8 |
| 20260903005727 | 88 | 26 | 1.7 | 3.5 | 0.00 | 0.00 | 0.00 | 64 | 1015.7 |
| 20260903005634 | 89 | 5 | 2.6 | 3.5 | 0.00 | 0.00 | 0.00 | 64 | 1015.9 |
| 20260903005542 | 89 | 5 | 2.6 | 3.5 | 0.00 | 0.00 | 0.00 | 64 | 1015.7 |
| 20260903005428 | 89 | 5 | 2.6 | 3.5 | 0.00 | 0.00 | 0.00 | 64 | 1015.8 |
| 20260903005318 | 89 | 5 | 1.7 | 3.5 | 0.00 | 0.00 | 0.00 | 64 | 1015.8 |
| 20260903005224 | 89 | 360 | 0.9 | 2.6 | 0.00 | 0.00 | 0.00 | 65 | 1015.7 |
| 20260903005130 | 89 | 334 | 0.0 | 0.0 | 0.00 | 0.00 | 0.00 | 65 | 1015.8 |
| 20260903005038 | 89 | 334 | 0.0 | 0.0 | 0.00 | 0.00 | 0.00 | 65 | 1015.7 |
| 20260903004923 | 89 | 334 | 0.0 | 0.0 | 0.00 | 0.00 | 0.00 | 65 | 1015.8 |
| 20260903004830 | 89 | 334 | 0.0 | 0.0 | 0.00 | 0.00 | 0.00 | 64 | 1015.7 |
| 20260903004804 | 89 | 334 | 0.0 | 0.0 | 0.00 | 0.00 | 0.00 | 63 | 1015.7 |
| 20260903004516 | 90 | 334 | 0.0 | 0.9 | 0.00 | 0.00 | 0.00 | 64 | 1015.6 |
| 20260903004423 | 90 | 334 | 0.0 | 1.7 | 0.00 | 0.00 | 0.00 | 64 | 1015.6 |
| 20260903004329 | 90 | 334 | 0.0 | 1.7 | 0.00 | 0.00 | 0.00 | 64 | 1015.6 |
| 20260903004236 | 90 | 334 | 0.0 | 1.7 | 0.00 | 0.00 | 0.00 | 64 | 1015.6 |
| 20260903004148 | 90 | 334 | 0.0 | 1.7 | 0.00 | 0.00 | 0.00 | 63 | 1015.7 |
| 20260903004033 | 90 | 334 | 0.0 | 1.7 | 0.00 | 0.00 | 0.00 | 63 | 1015.6 |
| 20260903003940 | 90 | 334 | 0.0 | 1.7 | 0.00 | 0.00 | 0.00 | 63 | 1015.6 |
| 20260903003827 | 90 | 334 | 0.0 | 1.7 | 0.00 | 0.00 | 0.00 | 62 | 1015.6 |
| 20260903003733 | 90 | 334 | 0.9 | 1.7 | 0.00 | 0.00 | 0.00 | 62 | 1015.7 |
| 20260903003639 | 91 | 334 | 0.9 | 1.7 | 0.00 | 0.00 | 0.00 | 62 | 1015.6 |
| 20260903003545 | 91 | 334 | 0.9 | 1.7 | 0.00 | 0.00 | 0.00 | 61 | 1015.7 |
| 20260903003417 | 91 | 334 | 0.9 | 1.7 | 0.00 | 0.00 | 0.00 | 61 | 1015.6 |
| 20260903003345 | 91 | 334 | 0.9 | 1.7 | 0.00 | 0.00 | 0.00 | 61 | 1015.6 |
| 20260903003315 | 91 | 334 | 0.9 | 1.7 | 0.00 | 0.00 | 0.00 | 60 | 1015.6 |
| 20260903003027 | 91 | 334 | 0.0 | 1.7 | 0.00 | 0.00 | 0.00 | 59 | 1015.6 |
| 20260903002932 | 91 | 202 | 0.0 | 0.9 | 0.00 | 0.00 | 0.00 | 60 | 1015.6 |
| 20260903002840 | 91 | 202 | 0.0 | 0.9 | 0.00 | 0.00 | 0.00 | 60 | 1015.6 |
| 20260903002730 | 91 | 202 | 0.0 | 2.6 | 0.00 | 0.00 | 0.00 | 61 | 1015.6 |
| 20260903002656 | 91 | 202 | 0.0 | 2.6 | 0.00 | 0.00 | 0.00 | 60 | 1015.6 |
| 20260903002543 | 91 | 202 | 0.0 | 2.6 | 0.00 | 0.00 | 0.00 | 59 | 1015.6 |
| 20260903002428 | 91 | 202 | 0.0 | 2.6 | 0.00 | 0.00 | 0.00 | 59 | 1015.6 |
| 20260903002316 | 91 | 202 | 0.0 | 2.6 | 0.00 | 0.00 | 0.00 | 58 | 1015.6 |
| 20260903002224 | 91 | 202 | 0.0 | 2.6 | 0.00 | 0.00 | 0.00 | 58 | 1015.6 |
| 20260903002135 | 91 | 202 | 0.0 | 2.6 | 0.00 | 0.00 | 0.00 | 58 | 1015.7 |
| 20260903002041 | 92 | 202 | 0.9 | 2.6 | 0.00 | 0.00 | 0.00 | 58 | 1015.6 |
| 20260903001925 | 92 | 202 | 1.7 | 2.6 | 0.00 | 0.00 | 0.00 | 59 | 1015.7 |
| 20260903001832 | 92 | 202 | 1.7 | 2.6 | 0.00 | 0.00 | 0.00 | 58 | 1015.6 |
| 20260903001802 | 92 | 207 | 1.7 | 2.6 | 0.00 | 0.00 | 0.00 | 58 | 1015.6 |
| 20260903001554 | 92 | 172 | 0.9 | 2.6 | 0.00 | 0.00 | 0.00 | 57 | 1015.6 |
| 20260903001424 | 92 | 136 | 0.9 | 1.7 | 0.00 | 0.00 | 0.00 | 57 | 1015.6 |
| 20260903001332 | 92 | 136 | 0.9 | 1.7 | 0.00 | 0.00 | 0.00 | 57 | 1015.6 |
| 20260903001219 | 92 | 136 | 0.9 | 2.6 | 0.00 | 0.00 | 0.00 | 57 | 1015.6 |
| 20260903001146 | 92 | 136 | 0.9 | 2.6 | 0.00 | 0.00 | 0.00 | 57 | 1015.6 |
| 20260903001033 | 92 | 137 | 0.9 | 2.6 | 0.00 | 0.00 | 0.00 | 56 | 1015.5 |
| 20260903000939 | 92 | 141 | 0.9 | 2.6 | 0.00 | 0.00 | 0.00 | 56 | 1015.5 |
| 20260903000829 | 92 | 132 | 1.7 | 2.6 | 0.00 | 0.00 | 0.00 | 56 | 1015.5 |
| 20260903000735 | 92 | 114 | 0.9 | 3.5 | 0.00 | 0.00 | 0.00 | 56 | 1015.5 |
| 20260903000624 | 93 | 114 | 0.9 | 3.5 | 0.00 | 0.00 | 0.00 | 56 | 1015.5 |
| 20260903000530 | 93 | 114 | 1.7 | 3.5 | 0.00 | 0.00 | 0.00 | 55 | 1015.5 |
| 20260903000418 | 93 | 114 | 1.7 | 3.5 | 0.00 | 0.00 | 0.00 | 55 | 1015.5 |
| 20260903000325 | 93 | 114 | 1.7 | 3.5 | 0.00 | 0.00 | 0.00 | 55 | 1015.5 |
| 20260903000258 | 93 | 120 | 1.7 | 3.5 | 0.00 | 0.00 | 0.00 | 56 | 1015.5 |
| 20260903000030 | 93 | 119 | 1.7 | 3.5 | 0.00 | 0.00 | 0.00 | 56 | 1015.5 |
| 20260902235936 | 93 | 117 | 2.6 | 3.5 | 0.00 | 0.00 | 0.00 | 56 | 1015.5 |
| 20260902235843 | 93 | 126 | 1.7 | 3.5 | 0.00 | 0.00 | 0.00 | 56 | 1015.5 |
| 20260902235728 | 93 | 121 | 0.9 | 2.6 | 0.00 | 0.00 | 0.00 | 57 | 1015.5 |
| 20260902235620 | 94 | 32 | 0.9 | 3.5 | 0.00 | 0.00 | 0.00 | 55 | 1015.5 |
| 20260902235547 | 94 | 32 | 0.9 | 3.5 | 0.00 | 0.00 | 0.00 | 54 | 1015.5 |
| 20260902235454 | 94 | 32 | 0.9 | 3.5 | 0.00 | 0.00 | 0.00 | 54 | 1015.5 |
| 20260902235320 | 94 | 32 | 0.9 | 3.5 | 0.00 | 0.00 | 0.00 | 54 | 1015.5 |
| 20260902235226 | 94 | 32 | 0.9 | 3.5 | 0.00 | 0.00 | 0.00 | 55 | 1015.5 |
| 20260902235132 | 94 | 32 | 0.9 | 3.5 | 0.00 | 0.00 | 0.00 | 55 | 1015.5 |
| 20260902235022 | 94 | 32 | 1.7 | 3.5 | 0.00 | 0.00 | 0.00 | 55 | 1015.5 |
| 20260902234928 | 94 | 32 | 1.7 | 3.5 | 0.00 | 0.00 | 0.00 | 54 | 1015.5 |
| 20260902234836 | 94 | 36 | 2.6 | 3.5 | 0.00 | 0.00 | 0.00 | 54 | 1015.6 |
| 20260902234805 | 94 | 40 | 2.6 | 4.3 | 0.00 | 0.00 | 0.00 | 53 | 1015.6 |
| 20260902234518 | 94 | 52 | 2.6 | 4.3 | 0.00 | 0.00 | 0.00 | 52 | 1015.6 |
| 20260902234448 | 94 | 34 | 2.6 | 4.3 | 0.00 | 0.00 | 0.00 | 52 | 1015.6 |
| 20260902234335 | 94 | 36 | 2.6 | 4.3 | 0.00 | 0.00 | 0.00 | 52 | 1015.6 |
| 20260902234221 | 95 | 42 | 2.6 | 4.3 | 0.00 | 0.00 | 0.00 | 52 | 1015.6 |
| 20260902234127 | 95 | 36 | 3.5 | 4.3 | 0.00 | 0.00 | 0.00 | 52 | 1015.7 |
| 20260902234035 | 95 | 37 | 3.5 | 4.3 | 0.00 | 0.00 | 0.00 | 51 | 1015.6 |
| 20260902233921 | 95 | 36 | 3.5 | 4.3 | 0.00 | 0.00 | 0.00 | 51 | 1015.6 |
| 20260902233833 | 95 | 38 | 2.6 | 3.5 | 0.00 | 0.00 | 0.00 | 51 | 1015.6 |
| 20260902233740 | 95 | 40 | 2.6 | 3.5 | 0.00 | 0.00 | 0.00 | 51 | 1015.6 |
| 20260902233626 | 95 | 38 | 2.6 | 3.5 | 0.00 | 0.00 | 0.00 | 51 | 1015.6 |
| 20260902233534 | 95 | 50 | 2.6 | 3.5 | 0.00 | 0.00 | 0.00 | 50 | 1015.6 |
| 20260902233421 | 95 | 34 | 2.6 | 3.5 | 0.00 | 0.00 | 0.00 | 50 | 1015.7 |
| 20260902233328 | 95 | 33 | 2.6 | 3.5 | 0.00 | 0.00 | 0.00 | 50 | 1015.6 |
| 20260902233301 | 95 | 27 | 2.6 | 3.5 | 0.00 | 0.00 | 0.00 | 50 | 1015.6 |
| 20260902233035 | 96 | 39 | 2.6 | 3.5 | 0.00 | 0.00 | 0.00 | 50 | 1015.6 |
| 20260902232920 | 96 | 30 | 2.6 | 3.5 | 0.00 | 0.00 | 0.00 | 50 | 1015.8 |
| 20260902232827 | 96 | 49 | 2.6 | 3.5 | 0.00 | 0.00 | 0.00 | 50 | 1015.7 |
| 20260902232719 | 96 | 57 | 2.6 | 3.5 | 0.00 | 0.00 | 0.00 | 50 | 1015.6 |
| 20260902232625 | 96 | 32 | 2.6 | 3.5 | 0.00 | 0.00 | 0.00 | 50 | 1015.7 |
| 20260902232532 | 96 | 28 | 1.7 | 3.5 | 0.00 | 0.00 | 0.00 | 49 | 1015.6 |
| 20260902232419 | 96 | 5 | 1.7 | 3.5 | 0.00 | 0.00 | 0.00 | 49 | 1015.6 |
| 20260902232346 | 96 | 50 | 2.6 | 4.3 | 0.00 | 0.00 | 0.00 | 48 | 1015.6 |
| 20260902232231 | 96 | 38 | 2.6 | 4.3 | 0.00 | 0.00 | 0.00 | 48 | 1015.6 |
| 20260902232122 | 96 | 37 | 2.6 | 4.3 | 0.00 | 0.00 | 0.00 | 49 | 1015.6 |
| 20260902232028 | 96 | 36 | 2.6 | 4.3 | 0.00 | 0.00 | 0.00 | 48 | 1015.6 |
| 20260902231954 | 97 | 46 | 2.6 | 4.3 | 0.00 | 0.00 | 0.00 | 48 | 1015.6 |
| 20260902231900 | 97 | 49 | 2.6 | 4.3 | 0.00 | 0.00 | 0.00 | 48 | 1015.6 |
| 20260902231810 | 97 | 80 | 2.6 | 4.3 | 0.00 | 0.00 | 0.00 | 48 | 1015.6 |
| 20260902231526 | 97 | 70 | 2.6 | 4.3 | 0.00 | 0.00 | 0.00 | 48 | 1015.6 |
| 20260902231434 | 97 | 43 | 1.7 | 3.5 | 0.00 | 0.00 | 0.00 | 47 | 1015.6 |
| 20260902231321 | 97 | 26 | 1.7 | 3.5 | 0.00 | 0.00 | 0.00 | 48 | 1015.7 |
| 20260902231229 | 97 | 49 | 1.7 | 4.3 | 0.00 | 0.00 | 0.00 | 47 | 1015.7 |
| 20260902231117 | 97 | 91 | 2.6 | 4.3 | 0.00 | 0.00 | 0.00 | 47 | 1015.6 |
| 20260902231024 | 97 | 68 | 1.7 | 4.3 | 0.00 | 0.00 | 0.00 | 46 | 1015.7 |
| 20260902230954 | 97 | 73 | 1.7 | 4.3 | 0.00 | 0.00 | 0.00 | 46 | 1015.7 |
| 20260902230820 | 97 | 65 | 1.7 | 4.3 | 0.00 | 0.00 | 0.00 | 46 | 1015.7 |
| 20260902230726 | 97 | 82 | 1.7 | 4.3 | 0.00 | 0.00 | 0.00 | 46 | 1015.7 |
| 20260902230633 | 97 | 70 | 1.7 | 4.3 | 0.00 | 0.00 | 0.00 | 47 | 1015.8 |
| 20260902230519 | 97 | 44 | 2.6 | 4.3 | 0.00 | 0.00 | 0.00 | 47 | 1015.7 |
| 20260902230427 | 97 | 143 | 2.6 | 5.2 | 0.00 | 0.00 | 0.00 | 47 | 1015.8 |
| 20260902230338 | 97 | 63 | 2.6 | 5.2 | 0.00 | 0.00 | 0.00 | 47 | 1015.7 |
| 20260902230308 | 97 | 86 | 2.6 | 5.2 | 0.00 | 0.00 | 0.00 | 47 | 1015.7 |
| 20260902230021 | 97 | 71 | 2.6 | 5.2 | 0.00 | 0.00 | 0.00 | 47 | 1015.6 |
| 20260902225948 | 97 | 69 | 2.6 | 5.2 | 0.00 | 0.00 | 0.00 | 47 | 1015.7 |
| 20260902225817 | 97 | 59 | 2.6 | 5.2 | 0.00 | 0.00 | 0.00 | 47 | 1015.8 |
| 20260902225745 | 97 | 68 | 3.5 | 5.2 | 0.00 | 0.00 | 0.00 | 47 | 1015.8 |
| 20260902225652 | 97 | 75 | 3.5 | 5.2 | 0.00 | 0.00 | 0.00 | 47 | 1015.8 |
| 20260902225520 | 97 | 74 | 3.5 | 5.2 | 0.00 | 0.00 | 0.00 | 47 | 1015.8 |
| 20260902225427 | 97 | 87 | 3.5 | 5.2 | 0.00 | 0.00 | 0.00 | 47 | 1015.8 |
| 20260902225333 | 97 | 80 | 2.6 | 6.1 | 0.00 | 0.00 | 0.00 | 47 | 1015.8 |
| 20260902225221 | 97 | 73 | 2.6 | 5.2 | 0.00 | 0.00 | 0.00 | 46 | 1015.7 |
| 20260902225131 | 97 | 74 | 2.6 | 5.2 | 0.00 | 0.00 | 0.00 | 46 | 1015.7 |
| 20260902225018 | 97 | 55 | 1.7 | 5.2 | 0.00 | 0.00 | 0.00 | 46 | 1015.9 |
| 20260902224945 | 97 | 76 | 2.6 | 5.2 | 0.00 | 0.00 | 0.00 | 46 | 1015.8 |
| 20260902224832 | 97 | 76 | 2.6 | 5.2 | 0.00 | 0.00 | 0.00 | 46 | 1015.8 |
| 20260902224803 | 98 | 69 | 1.7 | 5.2 | 0.00 | 0.00 | 0.00 | 46 | 1015.8 |
| 20260902224519 | 98 | 78 | 1.7 | 4.3 | 0.00 | 0.00 | 0.00 | 47 | 1015.7 |
| 20260902224428 | 98 | 88 | 2.6 | 4.3 | 0.00 | 0.00 | 0.00 | 47 | 1015.8 |
| 20260902224355 | 98 | 111 | 2.6 | 5.2 | 0.00 | 0.00 | 0.00 | 46 | 1015.8 |
| 20260902224221 | 98 | 70 | 3.5 | 5.2 | 0.00 | 0.00 | 0.00 | 46 | 1015.9 |
| 20260902224127 | 98 | 72 | 2.6 | 5.2 | 0.00 | 0.00 | 0.00 | 46 | 1015.9 |
| 20260902224018 | 98 | 82 | 2.6 | 5.2 | 0.00 | 0.00 | 0.00 | 47 | 1015.9 |
| 20260902223926 | 98 | 83 | 2.6 | 5.2 | 0.00 | 0.00 | 0.00 | 47 | 1015.8 |
| 20260902223833 | 98 | 53 | 2.6 | 5.2 | 0.00 | 0.00 | 0.00 | 47 | 1015.7 |
| 20260902223720 | 98 | 83 | 2.6 | 5.2 | 0.00 | 0.00 | 0.00 | 46 | 1015.9 |
| 20260902223646 | 98 | 103 | 2.6 | 5.2 | 0.00 | 0.00 | 0.00 | 46 | 1015.8 |
| 20260902223553 | 98 | 86 | 3.5 | 5.2 | 0.00 | 0.00 | 0.00 | 46 | 1015.7 |
| 20260902223419 | 97 | 75 | 2.6 | 5.2 | 0.00 | 0.00 | 0.00 | 46 | 1015.9 |
| 20260902223351 | 97 | 42 | 2.6 | 6.1 | 0.00 | 0.00 | 0.00 | 46 | 1015.9 |
| 20260902223300 | 97 | 62 | 1.7 | 5.2 | 0.00 | 0.00 | 0.00 | 46 | 1015.9 |
| 20260902223032 | 98 | 69 | 2.6 | 5.2 | 0.00 | 0.00 | 0.00 | 47 | 1015.9 |
| 20260902222919 | 98 | 57 | 2.6 | 5.2 | 0.00 | 0.00 | 0.00 | 47 | 1015.9 |
| 20260902222827 | 98 | 49 | 2.6 | 5.2 | 0.00 | 0.00 | 0.00 | 46 | 1015.9 |
| 20260902222718 | 98 | 46 | 3.5 | 5.2 | 0.00 | 0.00 | 0.00 | 48 | 1015.9 |
| 20260902222626 | 98 | 44 | 2.6 | 5.2 | 0.00 | 0.00 | 0.00 | 47 | 1015.9 |
| 20260902222534 | 98 | 18 | 1.7 | 4.3 | 0.00 | 0.00 | 0.00 | 48 | 1015.9 |
| 20260902222420 | 98 | 77 | 1.7 | 6.1 | 0.00 | 0.00 | 0.00 | 48 | 1015.9 |
| 20260902222328 | 98 | 79 | 1.7 | 6.1 | 0.00 | 0.00 | 0.00 | 48 | 1015.9 |
| 20260902222239 | 98 | 82 | 1.7 | 6.1 | 0.00 | 0.00 | 0.00 | 47 | 1015.9 |
| 20260902222124 | 98 | 44 | 2.6 | 6.1 | 0.00 | 0.00 | 0.00 | 47 | 1015.9 |
| 20260902222030 | 98 | 71 | 1.7 | 6.1 | 0.00 | 0.00 | 0.00 | 47 | 1015.9 |
| 20260902221917 | 97 | 69 | 2.6 | 6.1 | 0.00 | 0.00 | 0.00 | 48 | 1015.9 |
| 20260902221824 | 97 | 143 | 3.5 | 6.1 | 0.00 | 0.00 | 0.00 | 47 | 1015.9 |
| 20260902221758 | 97 | 88 | 4.3 | 6.1 | 0.00 | 0.00 | 0.00 | 47 | 1015.9 |
| 20260902221531 | 97 | 38 | 3.5 | 6.1 | 0.00 | 0.00 | 0.00 | 47 | 1015.8 |
| 20260902221417 | 97 | 35 | 2.6 | 5.2 | 0.00 | 0.00 | 0.00 | 47 | 1015.8 |
| 20260902221324 | 97 | 36 | 2.6 | 5.2 | 0.00 | 0.00 | 0.00 | 47 | 1015.9 |
| 20260902221231 | 97 | 74 | 3.5 | 5.2 | 0.00 | 0.00 | 0.00 | 48 | 1015.9 |
| 20260902221137 | 97 | 32 | 3.5 | 5.2 | 0.00 | 0.00 | 0.00 | 48 | 1015.9 |
| 20260902221027 | 97 | 38 | 2.6 | 5.2 | 0.00 | 0.00 | 0.00 | 47 | 1015.9 |
| 20260902220933 | 97 | 31 | 1.7 | 5.2 | 0.00 | 0.00 | 0.00 | 48 | 1016.0 |
| 20260902220820 | 97 | 69 | 2.6 | 5.2 | 0.00 | 0.00 | 0.00 | 49 | 1015.9 |
| 20260902220727 | 97 | 76 | 1.7 | 4.3 | 0.00 | 0.00 | 0.00 | 49 | 1015.8 |
| 20260902220635 | 97 | 112 | 1.7 | 4.3 | 0.00 | 0.00 | 0.00 | 47 | 1015.9 |
| 20260902220522 | 97 | 104 | 1.7 | 6.1 | 0.00 | 0.00 | 0.00 | 48 | 1015.9 |
| 20260902220434 | 97 | 99 | 2.6 | 6.1 | 0.00 | 0.00 | 0.00 | 49 | 1015.9 |
| 20260902220342 | 97 | 123 | 1.7 | 6.1 | 0.00 | 0.00 | 0.00 | 49 | 1015.9 |
| 20260902220313 | 97 | 146 | 1.7 | 6.1 | 0.00 | 0.00 | 0.00 | 49 | 1015.9 |
| 20260902220024 | 97 | 58 | 1.7 | 6.1 | 0.00 | 0.00 | 0.00 | 47 | 1015.9 |
| 20260902215932 | 97 | 48 | 2.6 | 6.1 | 0.00 | 0.00 | 0.00 | 47 | 1015.9 |
| 20260902215825 | 97 | 28 | 2.6 | 6.1 | 0.00 | 0.00 | 0.00 | 47 | 1015.9 |
| 20260902215751 | 97 | 48 | 2.6 | 6.1 | 0.00 | 0.00 | 0.00 | 47 | 1015.9 |
| 20260902215638 | 97 | 71 | 1.7 | 4.3 | 0.00 | 0.00 | 0.00 | 48 | 1015.9 |
| 20260902215525 | 97 | 36 | 0.9 | 2.6 | 0.00 | 0.00 | 0.00 | 48 | 1015.9 |
| 20260902215430 | 97 | 78 | 1.7 | 2.6 | 0.00 | 0.00 | 0.00 | 48 | 1015.9 |
| 20260902215319 | 97 | 79 | 1.7 | 2.6 | 0.00 | 0.00 | 0.00 | 49 | 1015.9 |
| 20260902215246 | 97 | 95 | 1.7 | 2.6 | 0.00 | 0.00 | 0.00 | 48 | 1016.0 |
| 20260902215136 | 97 | 140 | 0.9 | 3.5 | 0.00 | 0.00 | 0.00 | 47 | 1015.9 |
| 20260902215044 | 97 | 187 | 1.7 | 5.2 | 0.00 | 0.00 | 0.00 | 47 | 1015.8 |
| 20260902214931 | 97 | 95 | 1.7 | 5.2 | 0.00 | 0.00 | 0.00 | 48 | 1015.9 |
| 20260902214859 | 97 | 119 | 1.7 | 5.2 | 0.00 | 0.00 | 0.00 | 48 | 1015.9 |
| 20260902214808 | 97 | 115 | 1.7 | 5.2 | 0.00 | 0.00 | 0.00 | 47 | 1015.9 |
| 20260902214525 | 97 | 118 | 1.7 | 5.2 | 0.00 | 0.00 | 0.00 | 47 | 1015.9 |
| 20260902214431 | 97 | 105 | 2.6 | 5.2 | 0.00 | 0.00 | 0.00 | 46 | 1016.0 |
| 20260902214317 | 97 | 107 | 2.6 | 5.2 | 0.00 | 0.00 | 0.00 | 46 | 1016.0 |
| 20260902214224 | 97 | 126 | 2.6 | 5.2 | 0.00 | 0.00 | 0.00 | 47 | 1016.0 |
| 20260902214132 | 97 | 120 | 1.7 | 3.5 | 0.00 | 0.00 | 0.00 | 48 | 1016.0 |
| 20260902214017 | 97 | 80 | 1.7 | 3.5 | 0.00 | 0.00 | 0.00 | 47 | 1015.9 |
| 20260902213928 | 97 | 59 | 2.6 | 3.5 | 0.00 | 0.00 | 0.00 | 50 | 1016.0 |
| 20260902213835 | 97 | 82 | 2.6 | 3.5 | 0.00 | 0.00 | 0.00 | 49 | 1016.0 |
| 20260902213722 | 97 | 41 | 2.6 | 4.3 | 0.00 | 0.00 | 0.00 | 49 | 1016.1 |
| 20260902213650 | 97 | 138 | 1.7 | 4.3 | 0.00 | 0.00 | 0.00 | 49 | 1016.0 |
| 20260902213556 | 97 | 148 | 1.7 | 3.5 | 0.00 | 0.00 | 0.00 | 47 | 1016.0 |
| 20260902213441 | 97 | 148 | 0.9 | 5.2 | 0.00 | 0.00 | 0.00 | 48 | 1016.0 |
| 20260902213327 | 97 | 151 | 0.9 | 6.1 | 0.00 | 0.00 | 0.00 | 47 | 1016.0 |
| 20260902213303 | 97 | 151 | 1.7 | 6.1 | 0.00 | 0.00 | 0.00 | 47 | 1016.0 |
| 20260902213035 | 97 | 152 | 0.9 | 7.0 | 0.00 | 0.00 | 0.00 | 47 | 1016.1 |
| 20260902212922 | 97 | 132 | 1.7 | 7.0 | 0.00 | 0.00 | 0.00 | 47 | 1016.1 |
| 20260902212828 | 97 | 128 | 1.7 | 7.0 | 0.00 | 0.00 | 0.00 | 47 | 1016.1 |
| 20260902212719 | 97 | 131 | 3.5 | 7.0 | 0.00 | 0.00 | 0.00 | 47 | 1016.1 |
| 20260902212646 | 97 | 98 | 4.3 | 7.0 | 0.00 | 0.00 | 0.00 | 49 | 1016.1 |
| 20260902212532 | 97 | 113 | 3.5 | 7.0 | 0.00 | 0.00 | 0.00 | 49 | 1016.0 |
| 20260902212418 | 97 | 103 | 1.7 | 7.0 | 0.00 | 0.00 | 0.00 | 48 | 1016.1 |
| 20260902212325 | 97 | 44 | 2.6 | 7.0 | 0.00 | 0.00 | 0.00 | 48 | 1016.1 |
| 20260902212232 | 97 | 107 | 2.6 | 7.0 | 0.00 | 0.00 | 0.00 | 49 | 1016.1 |
| 20260902212123 | 97 | 83 | 2.6 | 7.0 | 0.00 | 0.00 | 0.00 | 47 | 1016.1 |
| 20260902212031 | 97 | 83 | 2.6 | 7.0 | 0.00 | 0.00 | 0.00 | 46 | 1016.1 |
| 20260902211957 | 97 | 117 | 2.6 | 5.2 | 0.00 | 0.00 | 0.00 | 48 | 1016.1 |
| 20260902211823 | 98 | 123 | 1.7 | 4.3 | 0.00 | 0.00 | 0.00 | 48 | 1016.2 |
| 20260902211753 | 97 | 109 | 1.7 | 3.5 | 0.00 | 0.00 | 0.00 | 47 | 1016.2 |
| 20260902211530 | 97 | 72 | 1.7 | 3.5 | 0.00 | 0.00 | 0.00 | 48 | 1016.2 |
| 20260902211416 | 97 | 130 | 2.6 | 5.2 | 0.00 | 0.00 | 0.00 | 47 | 1016.2 |
| 20260902211323 | 97 | 42 | 2.6 | 5.2 | 0.00 | 0.00 | 0.00 | 47 | 1016.2 |
| 20260902211230 | 97 | 41 | 1.7 | 5.2 | 0.00 | 0.00 | 0.00 | 48 | 1016.2 |
| 20260902211117 | 97 | 74 | 0.0 | 5.2 | 0.00 | 0.00 | 0.00 | 46 | 1016.2 |
| 20260902211025 | 97 | 227 | 0.0 | 5.2 | 0.00 | 0.00 | 0.00 | 46 | 1016.2 |
| 20260902210935 | 97 | 188 | 0.0 | 5.2 | 0.00 | 0.00 | 0.00 | 47 | 1016.2 |
| 20260902210821 | 96 | 169 | 0.9 | 5.2 | 0.00 | 0.00 | 0.00 | 47 | 1016.2 |
| 20260902210726 | 96 | 192 | 2.6 | 5.2 | 0.00 | 0.00 | 0.00 | 46 | 1016.2 |
| 20260902210634 | 96 | 192 | 2.6 | 5.2 | 0.00 | 0.00 | 0.00 | 48 | 1016.2 |
| 20260902210520 | 96 | 180 | 1.7 | 5.2 | 0.00 | 0.00 | 0.00 | 48 | 1016.2 |
| 20260902210431 | 96 | 114 | 1.7 | 5.2 | 0.00 | 0.00 | 0.00 | 48 | 1016.3 |
| 20260902210357 | 96 | 57 | 2.6 | 5.2 | 0.00 | 0.00 | 0.00 | 48 | 1016.3 |
| 20260902210327 | 96 | 57 | 3.5 | 5.2 | 0.00 | 0.00 | 0.00 | 48 | 1016.3 |
| 20260902210020 | 96 | 110 | 3.5 | 5.2 | 0.00 | 0.00 | 0.00 | 50 | 1016.3 |
| 20260902205928 | 96 | 121 | 2.6 | 5.2 | 0.00 | 0.00 | 0.00 | 49 | 1016.3 |
| 20260902205820 | 96 | 113 | 1.7 | 7.0 | 0.00 | 0.00 | 0.00 | 48 | 1016.3 |
| 20260902205726 | 96 | 101 | 1.7 | 7.0 | 0.00 | 0.00 | 0.00 | 49 | 1016.3 |
| 20260902205653 | 96 | 68 | 2.6 | 7.0 | 0.00 | 0.00 | 0.00 | 48 | 1016.3 |
| 20260902205518 | 96 | 105 | 2.6 | 7.8 | 0.00 | 0.00 | 0.00 | 50 | 1016.3 |
| 20260902205425 | 96 | 157 | 2.6 | 7.8 | 0.00 | 0.00 | 0.00 | 49 | 1016.4 |
| 20260902205333 | 96 | 106 | 2.6 | 7.8 | 0.00 | 0.00 | 0.00 | 48 | 1016.2 |
| 20260902205243 | 96 | 123 | 1.7 | 7.8 | 0.00 | 0.00 | 0.00 | 48 | 1016.3 |
| 20260902205128 | 96 | 120 | 1.7 | 7.8 | 0.00 | 0.00 | 0.00 | 48 | 1016.3 |
| 20260902205036 | 96 | 102 | 2.6 | 7.8 | 0.00 | 0.00 | 0.00 | 47 | 1016.3 |
| 20260902204922 | 96 | 131 | 4.3 | 7.8 | 0.00 | 0.00 | 0.00 | 48 | 1016.3 |
| 20260902204832 | 96 | 112 | 4.3 | 7.0 | 0.00 | 0.00 | 0.00 | 49 | 1016.3 |
| 20260902204805 | 96 | 131 | 3.5 | 7.0 | 0.00 | 0.00 | 0.00 | 51 | 1016.3 |
| 20260902204518 | 96 | 161 | 1.7 | 5.2 | 0.00 | 0.00 | 0.00 | 49 | 1016.3 |
| 20260902204425 | 96 | 103 | 2.6 | 5.2 | 0.00 | 0.00 | 0.00 | 48 | 1016.2 |
| 20260902204331 | 96 | 111 | 2.6 | 5.2 | 0.00 | 0.00 | 0.00 | 49 | 1016.3 |
| 20260902204219 | 96 | 123 | 2.6 | 5.2 | 0.00 | 0.00 | 0.00 | 52 | 1016.3 |
| 20260902204129 | 96 | 113 | 0.9 | 4.3 | 0.00 | 0.00 | 0.00 | 48 | 1016.2 |
| 20260902204035 | 96 | 157 | 0.9 | 3.5 | 0.00 | 0.00 | 0.00 | 49 | 1016.3 |
| 20260902203942 | 96 | 93 | 0.9 | 3.5 | 0.00 | 0.00 | 0.00 | 48 | 1016.3 |
| 20260902203828 | 96 | 97 | 1.7 | 3.5 | 0.00 | 0.00 | 0.00 | 48 | 1016.2 |
| 20260902203735 | 96 | 112 | 1.7 | 3.5 | 0.00 | 0.00 | 0.00 | 49 | 1016.2 |
| 20260902203620 | 96 | 134 | 1.7 | 3.5 | 0.00 | 0.00 | 0.00 | 50 | 1016.3 |
| 20260902203532 | 96 | 135 | 0.9 | 3.5 | 0.00 | 0.00 | 0.00 | 51 | 1016.3 |
| 20260902203419 | 96 | 99 | 0.9 | 5.2 | 0.00 | 0.00 | 0.00 | 52 | 1016.3 |
| 20260902203326 | 96 | 95 | 1.7 | 5.2 | 0.00 | 0.00 | 0.00 | 51 | 1016.3 |
| 20260902203258 | 96 | 112 | 1.7 | 5.2 | 0.00 | 0.00 | 0.00 | 51 | 1016.3 |
| 20260902203030 | 96 | 119 | 1.7 | 5.2 | 0.00 | 0.00 | 0.00 | 51 | 1016.3 |
| 20260902202919 | 96 | 130 | 0.9 | 5.2 | 0.00 | 0.00 | 0.00 | 49 | 1016.3 |
| 20260902202826 | 96 | 132 | 0.9 | 5.2 | 0.00 | 0.00 | 0.00 | 49 | 1016.4 |
| 20260902202733 | 96 | 113 | 1.7 | 5.2 | 0.00 | 0.00 | 0.00 | 49 | 1016.3 |
| 20260902202621 | 96 | 153 | 1.7 | 5.2 | 0.00 | 0.00 | 0.00 | 49 | 1016.4 |
| 20260902202529 | 96 | 73 | 1.7 | 2.6 | 0.00 | 0.00 | 0.00 | 50 | 1016.4 |
| 20260902202420 | 96 | 90 | 1.7 | 3.5 | 0.00 | 0.00 | 0.00 | 53 | 1016.3 |
| 20260902202328 | 96 | 127 | 1.7 | 3.5 | 0.00 | 0.00 | 0.00 | 49 | 1016.5 |
| 20260902202236 | 96 | 134 | 1.7 | 3.5 | 0.00 | 0.00 | 0.00 | 51 | 1016.4 |
| 20260902202123 | 96 | 235 | 0.9 | 3.5 | 0.00 | 0.00 | 0.00 | 50 | 1016.5 |
| 20260902202030 | 96 | 146 | 0.9 | 3.5 | 0.00 | 0.00 | 0.00 | 49 | 1016.5 |
| 20260902201921 | 96 | 137 | 1.7 | 3.5 | 0.00 | 0.00 | 0.00 | 49 | 1016.4 |
| 20260902201828 | 96 | 160 | 1.7 | 3.5 | 0.00 | 0.00 | 0.00 | 51 | 1016.6 |
| 20260902201759 | 96 | 156 | 1.7 | 3.5 | 0.00 | 0.00 | 0.00 | 51 | 1016.6 |
| 20260902201533 | 96 | 115 | 1.7 | 5.2 | 0.00 | 0.00 | 0.00 | 49 | 1016.6 |
| 20260902201420 | 96 | 91 | 1.7 | 5.2 | 0.00 | 0.00 | 0.00 | 49 | 1016.6 |
| 20260902201331 | 96 | 88 | 1.7 | 5.2 | 0.00 | 0.00 | 0.00 | 49 | 1016.6 |
| 20260902201220 | 96 | 142 | 1.7 | 5.2 | 0.00 | 0.00 | 0.00 | 50 | 1016.6 |
| 20260902201128 | 96 | 143 | 1.7 | 5.2 | 0.00 | 0.00 | 0.00 | 49 | 1016.7 |
| 20260902201033 | 96 | 119 | 1.7 | 5.2 | 0.00 | 0.00 | 0.00 | 51 | 1016.7 |
| 20260902200921 | 96 | 144 | 1.7 | 5.2 | 0.00 | 0.00 | 0.00 | 50 | 1016.7 |
| 20260902200831 | 96 | 108 | 2.6 | 6.1 | 0.00 | 0.00 | 0.00 | 49 | 1016.7 |
| 20260902200717 | 96 | 92 | 3.5 | 6.1 | 0.00 | 0.00 | 0.00 | 50 | 1016.7 |
| 20260902200645 | 96 | 82 | 3.5 | 6.1 | 0.00 | 0.00 | 0.00 | 50 | 1016.7 |
| 20260902200531 | 96 | 141 | 4.3 | 7.0 | 0.00 | 0.00 | 0.00 | 50 | 1016.8 |
| 20260902200417 | 96 | 132 | 3.5 | 7.0 | 0.00 | 0.00 | 0.00 | 50 | 1016.8 |
| 20260902200324 | 96 | 128 | 3.5 | 7.8 | 0.00 | 0.00 | 0.00 | 52 | 1016.8 |
| 20260902200259 | 96 | 86 | 3.5 | 7.8 | 0.00 | 0.00 | 0.00 | 52 | 1016.8 |
| 20260902200031 | 96 | 119 | 4.3 | 7.8 | 0.00 | 0.00 | 0.00 | 50 | 1016.8 |
| 20260902195919 | 96 | 119 | 4.3 | 7.8 | 0.00 | 0.00 | 0.00 | 53 | 1016.9 |
| 20260902195827 | 96 | 105 | 5.2 | 7.8 | 0.00 | 0.00 | 0.00 | 51 | 1016.9 |
| 20260902195719 | 96 | 98 | 4.3 | 7.8 | 0.00 | 0.00 | 0.00 | 51 | 1016.9 |
| 20260902195625 | 96 | 123 | 3.5 | 7.8 | 0.00 | 0.00 | 0.00 | 50 | 1017.0 |
| 20260902195532 | 96 | 96 | 3.5 | 7.8 | 0.00 | 0.00 | 0.00 | 52 | 1017.0 |
| 20260902195419 | 96 | 128 | 4.3 | 7.8 | 0.00 | 0.00 | 0.00 | 52 | 1016.9 |
| 20260902195346 | 96 | 111 | 3.5 | 7.8 | 0.00 | 0.00 | 0.00 | 51 | 1016.8 |
| 20260902195231 | 96 | 163 | 4.3 | 7.0 | 0.00 | 0.00 | 0.00 | 51 | 1016.9 |
| 20260902195122 | 97 | 86 | 4.3 | 7.0 | 0.00 | 0.00 | 0.00 | 51 | 1016.9 |
| 20260902195048 | 97 | 60 | 3.5 | 7.0 | 0.00 | 0.00 | 0.00 | 52 | 1016.9 |
| 20260902194933 | 97 | 132 | 4.3 | 7.0 | 0.00 | 0.00 | 0.00 | 50 | 1016.9 |
| 20260902194842 | 97 | 125 | 3.5 | 7.0 | 0.00 | 0.00 | 0.00 | 52 | 1016.9 |
| 20260902194812 | 97 | 84 | 3.5 | 7.0 | 0.00 | 0.00 | 0.00 | 51 | 1016.9 |
| 20260902194524 | 97 | 88 | 2.6 | 7.0 | 0.00 | 0.00 | 0.00 | 49 | 1017.0 |
| 20260902194456 | 97 | 86 | 1.7 | 7.0 | 0.00 | 0.00 | 0.00 | 49 | 1016.9 |
| 20260902194321 | 97 | 154 | 2.6 | 7.0 | 0.00 | 0.00 | 0.00 | 48 | 1016.9 |
| 20260902194229 | 97 | 117 | 3.5 | 7.0 | 0.00 | 0.00 | 0.00 | 48 | 1016.9 |
| 20260902194137 | 97 | 110 | 4.3 | 7.0 | 0.00 | 0.00 | 0.00 | 51 | 1017.0 |
| 20260902194042 | 97 | 69 | 4.3 | 7.0 | 0.00 | 0.00 | 0.00 | 50 | 1017.0 |
| 20260902193947 | 97 | 121 | 4.3 | 7.0 | 0.00 | 0.00 | 0.00 | 50 | 1017.0 |
| 20260902193834 | 97 | 98 | 2.6 | 7.0 | 0.00 | 0.00 | 0.00 | 48 | 1017.0 |
| 20260902193745 | 97 | 85 | 0.9 | 5.2 | 0.00 | 0.00 | 0.00 | 49 | 1017.0 |
| 20260902193631 | 97 | 171 | 1.7 | 5.2 | 0.00 | 0.00 | 0.00 | 50 | 1017.1 |
| 20260902193538 | 97 | 190 | 2.6 | 5.2 | 0.00 | 0.00 | 0.00 | 48 | 1017.1 |
| 20260902193444 | 97 | 186 | 3.5 | 5.2 | 0.00 | 0.00 | 0.00 | 50 | 1017.1 |
| 20260902193410 | 97 | 114 | 2.6 | 6.1 | 0.00 | 0.00 | 0.00 | 53 | 1017.1 |
| 20260902193320 | 97 | 163 | 2.6 | 7.8 | 0.00 | 0.00 | 0.00 | 54 | 1017.1 |
| 20260902193018 | 96 | 126 | 2.6 | 7.8 | 0.00 | 0.00 | 0.00 | 48 | 1017.1 |
| 20260902192922 | 96 | 188 | 3.5 | 7.8 | 0.00 | 0.00 | 0.00 | 49 | 1017.1 |
| 20260902192827 | 96 | 167 | 3.5 | 7.8 | 0.00 | 0.00 | 0.00 | 49 | 1017.1 |
| 20260902192736 | 96 | 178 | 4.3 | 7.8 | 0.00 | 0.00 | 0.00 | 51 | 1017.1 |
| 20260902192622 | 96 | 201 | 5.2 | 7.8 | 0.00 | 0.00 | 0.00 | 50 | 1017.2 |
| 20260902192531 | 96 | 184 | 4.3 | 7.8 | 0.00 | 0.00 | 0.00 | 50 | 1017.2 |
| 20260902192422 | 96 | 189 | 1.7 | 6.1 | 0.00 | 0.00 | 0.00 | 50 | 1017.2 |
| 20260902192349 | 96 | 133 | 0.0 | 7.0 | 0.00 | 0.00 | 0.00 | 49 | 1017.2 |
| 20260902192255 | 96 | 133 | 0.9 | 7.0 | 0.00 | 0.00 | 0.00 | 50 | 1017.2 |
| 20260902192121 | 96 | 133 | 0.9 | 7.0 | 0.00 | 0.00 | 0.00 | 49 | 1017.2 |
| 20260902192027 | 96 | 133 | 1.7 | 7.0 | 0.00 | 0.00 | 0.00 | 49 | 1017.2 |
| 20260902191934 | 96 | 151 | 2.6 | 7.0 | 0.00 | 0.00 | 0.00 | 48 | 1017.2 |
| 20260902191826 | 96 | 154 | 3.5 | 7.0 | 0.00 | 0.00 | 0.00 | 50 | 1017.2 |
| 20260902191756 | 96 | 63 | 3.5 | 7.0 | 0.00 | 0.00 | 0.00 | 50 | 1017.2 |
| 20260902191528 | 96 | 169 | 2.6 | 7.0 | 0.00 | 0.00 | 0.00 | 49 | 1017.2 |
| 20260902191435 | 96 | 175 | 1.7 | 2.6 | 0.00 | 0.00 | 0.00 | 48 | 1017.3 |
| 20260902191321 | 96 | 222 | 0.9 | 2.6 | 0.00 | 0.00 | 0.00 | 48 | 1017.2 |
| 20260902191233 | 96 | 333 | 0.0 | 2.6 | 0.00 | 0.00 | 0.00 | 48 | 1017.3 |
| 20260902191121 | 96 | 333 | 0.9 | 3.5 | 0.00 | 0.00 | 0.00 | 48 | 1017.2 |
| 20260902191028 | 96 | 333 | 1.7 | 6.1 | 0.00 | 0.00 | 0.00 | 51 | 1017.4 |
| 20260902190934 | 96 | 328 | 0.9 | 6.1 | 0.00 | 0.00 | 0.00 | 49 | 1017.3 |
| 20260902190821 | 96 | 167 | 0.9 | 6.1 | 0.00 | 0.00 | 0.00 | 49 | 1017.3 |
| 20260902190748 | 96 | 167 | 0.9 | 6.1 | 0.00 | 0.00 | 0.00 | 48 | 1017.4 |
| 20260902190619 | 96 | 167 | 1.7 | 6.1 | 0.00 | 0.00 | 0.00 | 48 | 1017.4 |
| 20260902190528 | 96 | 167 | 1.7 | 6.1 | 0.00 | 0.00 | 0.00 | 47 | 1017.4 |
| 20260902190435 | 96 | 119 | 1.7 | 6.1 | 0.00 | 0.00 | 0.00 | 46 | 1017.4 |
| 20260902190321 | 97 | 154 | 2.6 | 6.1 | 0.00 | 0.00 | 0.00 | 47 | 1017.4 |
| 20260902190256 | 97 | 126 | 2.6 | 6.1 | 0.00 | 0.00 | 0.00 | 47 | 1017.4 |
| 20260902190029 | 97 | 24 | 1.7 | 3.5 | 0.00 | 0.00 | 0.00 | 48 | 1017.5 |
| 20260902185937 | 97 | 122 | 0.9 | 3.5 | 0.00 | 0.00 | 0.00 | 45 | 1017.5 |
| 20260902185823 | 98 | 179 | 0.9 | 3.5 | 0.00 | 0.00 | 0.00 | 45 | 1017.5 |
| 20260902185730 | 98 | 179 | 0.9 | 3.5 | 0.00 | 0.00 | 0.00 | 45 | 1017.6 |
| 20260902185657 | 98 | 179 | 0.9 | 5.2 | 0.00 | 0.00 | 0.00 | 45 | 1017.5 |
| 20260902185522 | 98 | 169 | 0.9 | 5.2 | 0.00 | 0.00 | 0.00 | 45 | 1017.6 |
| 20260902185434 | 98 | 113 | 1.7 | 5.2 | 0.00 | 0.00 | 0.00 | 46 | 1017.5 |
| 20260902185340 | 98 | 48 | 1.7 | 5.2 | 0.00 | 0.00 | 0.00 | 48 | 1017.5 |
| 20260902185226 | 98 | 43 | 1.7 | 5.2 | 0.00 | 0.00 | 0.00 | 48 | 1017.6 |
| 20260902185154 | 98 | 26 | 2.6 | 5.2 | 0.00 | 0.00 | 0.00 | 47 | 1017.5 |
| 20260902185018 | 98 | 9 | 1.7 | 5.2 | 0.00 | 0.00 | 0.00 | 46 | 1017.6 |
| 20260902184926 | 98 | 254 | 2.6 | 5.2 | 0.00 | 0.00 | 0.00 | 48 | 1017.7 |
| 20260902184854 | 98 | 5 | 2.6 | 5.2 | 0.00 | 0.00 | 0.00 | 48 | 1017.7 |
| 20260902184829 | 98 | 43 | 3.5 | 7.0 | 0.00 | 0.00 | 0.00 | 50 | 1017.6 |
| 20260902184522 | 98 | 18 | 3.5 | 7.8 | 0.00 | 0.00 | 0.00 | 48 | 1017.6 |
| 20260902184450 | 98 | 24 | 3.5 | 7.8 | 0.00 | 0.00 | 0.00 | 50 | 1017.6 |
| 20260902184335 | 98 | 25 | 2.6 | 7.8 | 0.00 | 0.00 | 0.00 | 49 | 1017.5 |
| 20260902184227 | 97 | 286 | 2.6 | 7.8 | 0.00 | 0.00 | 0.00 | 48 | 1017.6 |
| 20260902184134 | 97 | 36 | 3.5 | 7.8 | 0.00 | 0.00 | 0.00 | 51 | 1017.7 |
| 20260902184021 | 97 | 344 | 4.3 | 7.8 | 0.00 | 0.00 | 0.00 | 51 | 1017.6 |
| 20260902183928 | 97 | 355 | 5.2 | 7.8 | 0.00 | 0.00 | 0.00 | 52 | 1017.6 |
| 20260902183835 | 97 | 336 | 5.2 | 7.8 | 0.00 | 0.00 | 0.00 | 52 | 1017.7 |
| 20260902183721 | 97 | 5 | 3.5 | 7.8 | 0.00 | 0.00 | 0.00 | 50 | 1017.6 |
| 20260902183633 | 97 | 5 | 2.6 | 7.8 | 0.00 | 0.00 | 0.00 | 49 | 1017.6 |
| 20260902183519 | 97 | 336 | 2.6 | 7.8 | 0.00 | 0.00 | 0.00 | 51 | 1017.6 |
| 20260902183447 | 97 | 339 | 2.6 | 7.8 | 0.00 | 0.00 | 0.00 | 49 | 1017.6 |
| 20260902183334 | 97 | 284 | 1.7 | 7.8 | 0.00 | 0.00 | 0.00 | 50 | 1017.7 |
| 20260902183305 | 97 | 296 | 2.6 | 7.8 | 0.00 | 0.00 | 0.00 | 51 | 1017.7 |
| 20260902183022 | 96 | 107 | 4.3 | 7.8 | 0.00 | 0.00 | 0.00 | 52 | 1017.7 |
| 20260902182927 | 96 | 76 | 5.2 | 7.8 | 0.00 | 0.00 | 0.00 | 53 | 1017.7 |
| 20260902182834 | 96 | 43 | 5.2 | 6.1 | 0.00 | 0.00 | 0.00 | 53 | 1017.7 |
| 20260902182740 | 96 | 37 | 3.5 | 6.1 | 0.00 | 0.00 | 0.00 | 53 | 1017.7 |
| 20260902182647 | 96 | 24 | 1.7 | 5.2 | 0.00 | 0.00 | 0.00 | 51 | 1017.7 |
| 20260902182552 | 96 | 321 | 0.9 | 5.2 | 0.00 | 0.00 | 0.00 | 51 | 1017.7 |
| 20260902182438 | 95 | 79 | 1.7 | 5.2 | 0.00 | 0.00 | 0.00 | 51 | 1017.7 |
| 20260902182327 | 95 | 79 | 1.7 | 5.2 | 0.00 | 0.00 | 0.00 | 51 | 1017.7 |
| 20260902182235 | 95 | 101 | 0.9 | 5.2 | 0.00 | 0.00 | 0.00 | 53 | 1017.7 |
| 20260902182120 | 95 | 133 | 1.7 | 6.1 | 0.00 | 0.00 | 0.00 | 51 | 1017.7 |
| 20260902182048 | 95 | 121 | 1.7 | 6.1 | 0.00 | 0.00 | 0.00 | 52 | 1017.7 |
| 20260902181934 | 95 | 67 | 2.6 | 6.1 | 0.00 | 0.00 | 0.00 | 53 | 1017.7 |
| 20260902181823 | 95 | 82 | 2.6 | 7.8 | 0.00 | 0.00 | 0.00 | 55 | 1017.9 |
| 20260902181757 | 95 | 71 | 2.6 | 7.8 | 0.00 | 0.00 | 0.00 | 55 | 1017.9 |
| 20260902181532 | 95 | 134 | 2.6 | 7.8 | 0.00 | 0.00 | 0.00 | 52 | 1017.9 |
| 20260902181418 | 96 | 196 | 4.3 | 7.8 | 0.00 | 0.00 | 0.00 | 52 | 1017.9 |
| 20260902181327 | 96 | 184 | 3.5 | 7.8 | 0.00 | 0.00 | 0.00 | 52 | 1017.9 |
| 20260902181232 | 96 | 182 | 3.5 | 7.8 | 0.00 | 0.00 | 0.00 | 52 | 1017.9 |
| 20260902181125 | 96 | 152 | 5.2 | 7.8 | 0.00 | 0.00 | 0.00 | 54 | 1018.0 |
| 20260902181031 | 96 | 150 | 4.3 | 7.8 | 0.00 | 0.00 | 0.00 | 54 | 1017.9 |
| 20260902180918 | 96 | 92 | 1.7 | 6.1 | 0.00 | 0.00 | 0.00 | 50 | 1017.9 |
| 20260902180825 | 96 | 146 | 1.7 | 6.1 | 0.00 | 0.00 | 0.00 | 49 | 1018.0 |
| 20260902180732 | 96 | 135 | 2.6 | 6.1 | 0.00 | 0.00 | 0.00 | 50 | 1018.0 |
| 20260902180642 | 97 | 124 | 3.5 | 6.1 | 0.00 | 0.00 | 0.00 | 51 | 1018.0 |
| 20260902180529 | 97 | 164 | 2.6 | 5.2 | 0.00 | 0.00 | 0.00 | 50 | 1018.0 |
| 20260902180435 | 97 | 125 | 2.6 | 5.2 | 0.00 | 0.00 | 0.00 | 52 | 1018.0 |
| 20260902180343 | 97 | 86 | 2.6 | 5.2 | 0.00 | 0.00 | 0.00 | 53 | 1018.1 |
| 20260902180313 | 97 | 68 | 1.7 | 5.2 | 0.00 | 0.00 | 0.00 | 53 | 1018.1 |
| 20260902180029 | 97 | 57 | 0.9 | 3.5 | 0.00 | 0.00 | 0.00 | 51 | 1018.1 |
| 20260902175936 | 97 | 63 | 0.9 | 3.5 | 0.00 | 0.00 | 0.00 | 52 | 1018.2 |
| 20260902175844 | 97 | 186 | 1.7 | 3.5 | 0.00 | 0.00 | 0.00 | 49 | 1018.2 |
| 20260902175730 | 97 | 276 | 1.7 | 3.5 | 0.00 | 0.00 | 0.00 | 49 | 1018.2 |
| 20260902175616 | 97 | 315 | 0.9 | 3.5 | 0.00 | 0.00 | 0.00 | 52 | 1018.2 |
| 20260902175523 | 97 | 106 | 0.9 | 3.5 | 0.00 | 0.00 | 0.00 | 49 | 1018.3 |
| 20260902175434 | 97 | 184 | 1.7 | 3.5 | 0.00 | 0.00 | 0.00 | 49 | 1018.3 |
| 20260902175322 | 97 | 232 | 1.7 | 3.5 | 0.00 | 0.00 | 0.00 | 50 | 1018.3 |
| 20260902175228 | 97 | 242 | 1.7 | 3.5 | 0.00 | 0.00 | 0.00 | 51 | 1018.2 |
| 20260902175135 | 97 | 271 | 1.7 | 4.3 | 0.00 | 0.00 | 0.00 | 52 | 1018.2 |
| 20260902175021 | 97 | 316 | 1.7 | 4.3 | 0.00 | 0.00 | 0.00 | 52 | 1018.3 |
| 20260902174928 | 96 | 355 | 1.7 | 4.3 | 0.00 | 0.00 | 0.00 | 53 | 1018.3 |
| 20260902174859 | 96 | 311 | 2.6 | 4.3 | 0.00 | 0.00 | 0.00 | 53 | 1018.3 |
| 20260902174830 | 96 | 311 | 1.7 | 4.3 | 0.00 | 0.00 | 0.00 | 52 | 1018.3 |
| 20260902174522 | 96 | 61 | 0.9 | 5.2 | 0.00 | 0.00 | 0.00 | 50 | 1018.3 |
| 20260902174429 | 96 | 5 | 1.7 | 7.0 | 0.00 | 0.00 | 0.00 | 52 | 1018.3 |
| 20260902174320 | 96 | 5 | 2.6 | 7.0 | 0.00 | 0.00 | 0.00 | 52 | 1018.4 |
| 20260902174227 | 96 | 21 | 2.6 | 7.0 | 0.00 | 0.00 | 0.00 | 54 | 1018.4 |
| 20260902174135 | 96 | 40 | 1.7 | 7.0 | 0.00 | 0.00 | 0.00 | 52 | 1018.5 |
| 20260902174021 | 96 | 341 | 1.7 | 7.0 | 0.00 | 0.00 | 0.00 | 51 | 1018.5 |
| 20260902173949 | 96 | 355 | 2.6 | 7.0 | 0.00 | 0.00 | 0.00 | 53 | 1018.6 |
| 20260902173835 | 96 | 18 | 4.3 | 7.0 | 0.00 | 0.00 | 0.00 | 53 | 1018.5 |
| 20260902173725 | 96 | 360 | 3.5 | 7.0 | 0.00 | 0.00 | 0.00 | 52 | 1018.6 |
| 20260902173632 | 96 | 9 | 2.6 | 7.0 | 0.00 | 0.00 | 0.00 | 53 | 1018.5 |
| 20260902173538 | 96 | 266 | 1.7 | 3.5 | 0.00 | 0.00 | 0.00 | 52 | 1018.6 |
| 20260902173424 | 96 | 327 | 1.7 | 3.5 | 0.00 | 0.00 | 0.00 | 53 | 1018.6 |
| 20260902173330 | 96 | 165 | 0.9 | 3.5 | 0.00 | 0.00 | 0.00 | 52 | 1018.6 |
| 20260902173303 | 96 | 205 | 0.9 | 3.5 | 0.00 | 0.00 | 0.00 | 55 | 1018.6 |